GFSGL_250_spd_027.txt.gz
Wind_Speed
57 59 62 67 70 70 75 80 84 89 94 91 90 90 94 99 103 109 111 111 105 106 108 110 112 112 108 107 105 100 97 93 85 79 74 71 67 65 63 61 61 61 60
61 65 67 66 70 75 80 84 87 94 91 91 92 95 99 103 108 111 110 106 104 106 109 109 110 108 101 101 99 94 90 85 77 71 71 67 64 61 58 57 56 55 57
66 70 66 72 77 82 85 88 95 94 91 92 94 100 104 108 110 108 101 102 105 107 106 109 103 98 94 91 89 86 82 76 71 66 65 62 60 56 54 52 52 52 53
66 70 75 78 83 86 90 94 97 94 94 96 102 106 107 108 105 104 103 105 106 105 98 99 96 93 88 85 83 78 73 69 66 63 59 58 55 51 49 49 49 48 50
71 77 81 85 89 90 95 97 94 96 99 104 107 109 106 103 104 104 105 105 104 102 98 93 90 88 82 79 75 70 67 65 62 59 57 54 52 51 48 45 45 46 45
78 83 87 90 92 97 99 96 98 101 107 109 109 106 104 102 104 106 105 102 96 97 95 91 86 81 77 73 68 66 63 61 58 55 53 51 49 48 45 42 43 43 45
85 89 91 94 99 99 98 100 104 109 111 110 107 104 102 105 106 108 105 100 97 95 91 87 82 78 71 68 65 63 61 57 54 53 52 49 49 46 43 40 39 39 40
89 92 94 98 98 98 101 106 110 112 110 109 106 105 106 105 106 101 100 98 97 92 85 80 78 73 69 66 63 60 56 54 50 49 49 47 46 44 44 39 37 35 37
93 97 97 96 98 101 107 111 113 111 108 107 108 110 110 105 102 101 99 93 89 87 80 77 75 70 66 63 60 58 54 50 47 47 46 46 44 42 41 38 37 36 33
100 97 95 97 102 109 113 113 110 108 110 110 111 112 107 104 99 95 91 85 82 80 77 72 70 65 62 60 57 55 51 48 45 44 44 44 41 39 38 37 37 34 32
97 98 101 105 109 114 116 116 112 111 110 110 110 108 103 98 95 92 87 83 79 74 72 67 66 62 59 56 54 51 48 45 43 43 43 41 37 35 35 34 34 32 32
100 103 107 113 117 118 117 113 114 114 113 112 108 103 99 92 88 84 80 78 75 71 69 65 62 59 56 54 51 49 46 43 41 42 42 39 35 33 32 32 32 30 29
103 106 111 116 118 117 115 112 113 113 113 108 103 98 93 88 81 79 77 75 72 67 65 62 59 56 53 51 49 46 42 40 40 40 40 37 34 31 31 31 30 28 27
105 110 116 118 116 114 110 111 112 114 111 106 100 94 88 83 78 74 73 72 68 65 62 60 57 54 51 48 45 43 41 39 38 38 37 35 33 31 30 29 28 26 26
111 117 119 117 114 112 111 111 110 108 104 100 97 89 83 80 74 71 68 66 64 62 60 55 53 50 47 45 42 40 39 37 35 35 34 32 31 29 28 27 26 24 24
116 120 119 114 111 110 108 108 110 107 101 95 90 85 81 76 71 67 64 61 59 58 55 53 50 47 44 42 39 37 37 36 35 34 32 30 28 27 27 25 24 23 23
120 119 115 112 110 108 107 105 102 101 96 90 83 80 76 72 68 65 61 58 53 53 52 50 48 45 43 41 38 36 35 35 34 33 31 29 27 25 25 24 23 22 22
121 117 114 112 109 108 106 100 94 89 84 84 82 75 71 69 65 61 57 55 52 51 50 48 46 43 41 40 38 36 34 33 32 31 30 27 25 24 23 23 21 20 21
114 114 111 107 104 101 98 94 89 86 82 78 76 73 67 64 61 57 55 55 53 50 50 47 45 42 40 38 36 35 33 32 31 29 28 26 24 23 22 21 20 19 20
114 112 109 105 100 96 90 86 82 79 78 73 72 68 64 62 61 59 55 54 54 51 49 47 45 41 39 37 36 34 33 31 29 28 27 26 24 22 21 20 19 18 19
112 110 105 99 95 89 85 82 77 75 74 67 65 64 63 61 60 59 56 52 51 50 48 46 44 41 39 37 36 33 31 29 28 26 25 24 23 22 21 19 19 19 18
107 103 98 94 90 86 82 77 73 70 71 67 61 63 61 59 58 56 54 51 49 48 45 44 42 39 37 35 34 33 30 27 26 25 23 23 22 22 21 19 19 20 19
101 97 94 89 85 80 77 75 70 66 67 68 66 63 62 60 56 53 49 46 45 45 44 41 39 37 35 33 31 30 29 27 26 25 22 22 22 22 21 20 19 20 20
96 92 87 83 80 77 74 71 69 67 64 64 64 64 62 59 55 52 49 45 44 42 40 39 38 36 34 33 31 29 28 27 25 25 22 22 21 21 22 22 20 20 21
90 87 83 79 76 74 72 69 66 65 65 63 60 60 59 57 53 49 46 42 40 40 38 36 36 35 34 32 30 28 28 27 24 24 23 21 21 21 21 23 22 21 22
84 82 77 75 72 69 67 65 64 63 63 62 59 55 54 51 49 47 44 41 38 37 37 36 34 33 32 31 29 28 26 26 25 23 23 23 21 21 21 21 24 23 21

GFSGL_250_spd_030.txt.gz
Wind_Speed
54 58 61 64 64 65 67 71 76 81 85 88 91 96 99 97 98 101 106 109 109 106 104 105 106 106 109 111 109 106 102 99 94 88 88 84 79 73 69 64 60 57 55
58 63 67 66 66 70 73 78 82 86 89 92 96 98 97 99 104 107 108 106 106 107 104 106 108 108 110 109 106 101 97 92 87 82 82 77 73 67 62 59 56 54 54
62 64 66 68 70 74 77 83 86 89 94 95 94 95 98 105 109 107 104 103 103 104 105 106 108 108 106 103 98 94 90 85 80 76 74 71 67 61 59 56 53 52 53
62 66 69 70 72 78 83 86 89 96 94 92 94 98 105 107 105 102 102 103 104 105 106 107 105 104 100 96 91 87 82 79 75 71 67 64 60 58 55 54 51 50 48
65 68 71 76 81 85 88 88 96 96 94 95 99 104 106 104 102 103 105 105 105 106 106 104 101 99 96 91 87 82 76 71 69 65 62 60 57 53 53 50 48 50 45
67 71 77 81 87 89 90 95 98 95 96 100 105 108 105 103 102 103 106 108 108 104 100 99 96 94 89 85 80 76 70 66 65 61 58 57 53 51 50 48 46 44 44
73 78 83 87 89 91 94 99 95 98 101 104 108 106 104 103 106 108 109 109 104 100 97 95 91 87 83 78 74 70 66 63 61 60 57 51 50 48 48 45 44 41 38
81 85 88 91 91 94 100 96 100 103 110 113 114 111 109 110 110 111 110 105 99 96 93 88 85 80 76 74 70 67 63 59 56 53 53 51 48 46 44 43 43 39 35
87 90 92 93 96 102 97 99 104 110 113 117 115 111 111 113 112 111 106 103 97 91 86 81 78 75 73 70 66 62 59 55 53 51 49 48 46 43 42 41 39 39 35
92 94 96 97 103 99 102 107 110 113 118 118 115 113 113 114 112 108 103 97 89 84 79 77 73 70 67 64 61 60 57 53 50 47 46 45 42 39 39 39 37 36 36
94 96 96 102 100 101 105 110 113 119 120 114 112 112 114 113 111 104 96 90 84 80 75 71 68 66 64 62 58 56 54 50 47 44 42 40 38 37 37 36 35 35 34
96 98 102 102 102 105 110 113 118 120 114 114 115 113 111 109 104 97 89 86 83 78 71 67 65 63 60 57 55 52 50 48 45 43 40 37 35 34 34 32 33 34 33
98 101 102 102 105 109 113 116 120 117 115 116 114 110 106 102 97 90 86 83 79 75 69 65 61 59 57 53 51 49 47 45 43 41 39 36 33 32 32 31 31 31 31
101 103 102 106 110 111 115 118 117 116 115 114 109 105 102 97 90 84 81 77 74 71 66 61 57 55 52 50 48 46 44 43 41 39 37 35 33 32 31 30 31 30 30
103 102 106 110 112 115 118 118 115 114 113 108 104 99 94 88 85 81 77 73 69 66 62 56 53 53 51 49 47 45 42 40 39 38 34 33 31 31 30 29 29 28 27
103 106 111 113 115 116 117 116 116 113 109 104 100 92 87 83 79 76 73 68 64 60 59 56 53 51 49 46 44 42 40 38 37 36 32 31 30 30 30 28 27 27 25
108 112 115 115 116 116 115 114 111 110 106 103 98 91 82 76 72 70 66 63 62 59 58 56 53 50 48 46 43 40 39 37 36 34 31 30 29 28 27 26 25 26 24
112 114 115 119 119 118 115 113 108 103 97 93 92 89 83 76 71 67 63 61 60 57 56 55 54 52 48 45 42 40 38 36 35 32 30 29 27 27 26 24 23 24 23
112 114 116 116 115 112 110 105 101 94 88 82 81 82 80 74 68 65 62 58 57 56 55 54 52 51 47 44 41 39 37 35 34 32 30 27 26 25 25 23 22 23 22
115 115 116 114 112 110 105 100 95 88 82 77 75 75 73 69 66 64 61 58 56 55 53 51 50 48 45 42 39 36 35 33 32 30 29 26 25 24 24 22 21 21 21
114 114 111 110 107 104 99 93 88 84 79 74 71 70 69 66 65 62 60 57 54 52 50 48 48 45 43 40 38 35 32 31 30 29 28 26 25 23 22 21 20 19 20
110 110 109 105 102 97 91 87 83 78 75 70 68 65 65 62 61 61 59 57 53 49 47 46 45 43 41 39 37 34 31 29 29 28 27 26 25 23 21 21 20 19 18
110 108 104 100 93 89 84 81 79 75 71 67 64 62 62 61 59 59 55 53 51 47 44 42 42 40 39 37 36 34 31 29 28 27 25 25 23 23 21 20 20 19 18
105 102 96 89 86 82 79 77 75 72 69 66 65 62 60 61 58 55 52 50 48 45 42 40 39 39 36 35 34 32 31 30 28 27 25 25 23 22 22 21 20 19 19
99 93 87 83 80 78 76 73 70 67 66 64 63 62 60 57 54 52 50 46 44 42 40 38 37 37 37 34 32 30 29 28 27 26 25 24 24 23 22 22 21 21 19
90 85 82 79 76 74 71 69 66 65 63 62 59 58 56 53 51 48 46 44 41 40 38 37 35 35 35 34 33 31 29 27 26 25 24 23 24 23 23 22 22 22 22

GFSGL_250_spd_036.txt.gz
Wind_Speed
41 48 54 56 54 57 61 62 65 68 72 72 75 80 84 85 88 89 92 95 96 97 103 105 105 108 110 110 111 112 110 107 100 95 91 86 81 76 74 73 69 65 61
41 50 52 54 58 63 63 65 69 72 74 76 80 84 86 89 91 93 95 98 98 103 106 106 109 111 112 112 111 109 104 96 91 86 85 82 80 75 71 68 66 61 57
45 48 53 58 60 64 67 69 71 74 76 80 85 88 91 94 97 98 101 100 103 107 106 109 111 113 112 112 110 103 97 93 87 82 81 78 75 69 66 62 60 57 51
51 55 58 60 65 68 70 71 75 77 80 83 87 91 96 97 98 102 100 103 108 107 110 113 115 114 114 110 104 101 96 89 83 80 76 72 68 65 62 59 58 52 48
55 60 63 66 69 70 73 76 78 80 85 89 92 96 98 99 101 100 104 108 107 110 113 116 115 115 110 108 104 98 90 84 80 76 72 69 65 62 58 55 55 52 46
62 66 67 70 72 75 76 79 81 84 88 92 97 96 98 101 100 103 107 108 110 113 116 117 115 113 111 106 99 91 85 79 75 72 69 65 62 59 55 51 50 49 46
65 67 70 73 75 77 79 82 85 89 95 96 98 100 103 103 105 109 111 111 114 117 118 116 116 114 108 102 93 87 82 74 71 67 64 61 59 55 52 48 45 45 43
67 70 73 76 78 80 83 87 90 94 96 101 102 103 104 105 109 114 114 114 116 117 117 118 116 110 103 95 90 84 77 70 67 62 60 58 57 55 52 49 45 41 38
70 74 76 79 82 84 87 91 94 97 100 101 103 105 105 110 113 117 116 116 117 118 119 117 113 105 97 90 84 79 73 67 63 59 58 57 55 53 51 48 43 41 37
73 75 79 82 84 87 91 94 97 99 101 102 106 105 109 113 117 117 118 118 118 117 118 114 107 98 91 86 79 76 69 64 60 58 56 56 53 51 49 47 43 38 37
77 79 82 85 88 90 93 97 99 101 102 106 104 110 113 117 117 118 119 118 118 116 114 108 98 92 87 81 74 72 64 62 58 57 55 53 51 48 47 45 44 40 36
79 83 86 89 91 93 97 98 100 102 106 106 108 113 118 120 118 118 118 118 115 112 108 100 94 88 81 77 71 67 62 59 56 54 53 52 50 46 44 41 42 39 38
84 87 89 92 94 96 98 100 102 107 107 109 113 117 118 119 120 119 117 116 113 106 101 93 89 84 77 71 68 63 60 57 56 54 52 50 48 45 42 38 39 38 34
87 89 91 93 95 96 99 102 106 110 110 114 117 118 118 116 118 118 116 114 108 99 93 88 85 80 74 68 65 60 57 56 55 53 51 49 46 43 41 39 36 36 33
89 91 93 95 97 101 104 106 110 112 114 117 118 118 116 113 115 116 114 107 98 94 89 85 80 76 70 65 62 59 57 55 54 50 48 46 44 41 39 37 36 33 32
93 95 97 99 102 104 106 110 113 115 118 120 120 118 114 114 113 111 105 98 91 87 84 81 77 72 67 63 61 58 55 53 52 47 45 43 41 40 37 35 35 32 29
96 98 100 103 105 108 111 111 112 116 119 121 121 120 119 116 111 102 96 92 88 84 77 72 71 67 64 61 59 57 52 50 48 44 43 41 39 38 36 33 33 31 28
98 100 103 105 108 111 112 115 115 113 112 113 116 116 114 110 104 97 91 86 83 80 73 68 67 66 61 59 56 53 50 48 45 42 40 38 37 36 34 32 30 29 26
101 103 105 108 110 113 115 116 116 115 113 110 110 111 107 101 94 90 85 81 78 74 70 68 64 64 60 56 53 50 47 45 42 40 37 35 34 33 32 30 29 27 25
104 106 107 110 113 116 116 115 114 112 111 111 109 103 96 91 87 84 81 75 72 70 69 67 62 60 55 53 50 47 44 41 39 38 35 32 32 32 31 29 27 27 24
107 109 112 115 117 116 114 113 111 111 110 108 101 93 87 84 80 76 74 71 70 68 68 65 60 57 53 50 47 45 42 39 37 37 33 31 30 29 29 27 26 25 22
111 114 117 117 114 113 112 110 112 109 103 96 90 86 83 79 75 72 69 68 67 66 63 61 57 53 50 47 44 42 40 37 35 35 32 30 29 28 27 26 25 24 22
117 117 114 113 112 110 110 110 106 100 93 88 83 80 78 75 71 70 68 66 63 60 59 56 52 48 47 44 42 40 38 36 34 34 30 29 28 27 27 25 23 22 21
115 111 112 109 110 109 109 103 98 91 87 83 79 76 74 71 70 68 65 62 59 56 53 51 48 47 44 42 41 39 36 35 34 32 30 28 27 26 26 25 23 21 20
112 109 109 110 110 108 102 96 91 87 83 79 75 73 71 68 66 63 61 58 55 52 49 47 45 43 42 39 39 37 34 33 32 30 29 26 26 25 25 24 23 21 20
109 109 111 109 105 99 94 91 86 82 79 76 73 70 67 64 62 60 57 55 51 49 47 44 42 39 40 38 36 35 32 31 30 28 27 25 24 23 24 23 22 21 20

GFSGL_250_spd_039.txt.gz
Wind_Speed
32 38 41 44 46 52 55 55 60 66 73 73 75 76 76 80 83 87 90 91 94 94 97 100 101 103 107 110 111 112 113 113 112 111 106 99 89 82 76 72 69 66 64
30 33 37 43 51 52 53 59 66 72 72 74 77 79 81 82 86 89 92 94 96 99 100 103 103 108 111 112 114 114 114 114 111 106 100 92 86 80 75 70 67 62 59
36 39 43 49 50 55 61 66 70 71 74 77 81 83 86 88 90 92 95 96 98 102 105 103 108 112 115 116 116 116 117 113 107 99 93 87 81 75 71 67 63 59 54
40 45 49 53 57 62 65 67 69 72 76 79 83 86 87 90 94 95 97 99 101 105 104 108 113 117 119 118 118 118 116 109 103 95 88 81 77 73 68 63 60 53 52
48 51 54 59 62 65 68 71 75 77 80 84 87 87 90 93 97 99 99 102 106 107 109 113 117 121 121 120 118 116 111 106 98 91 84 77 74 70 64 59 55 51 49
52 55 59 62 66 69 72 75 78 81 83 86 88 90 93 96 100 101 104 105 110 109 113 117 121 123 122 120 116 113 107 100 92 86 78 74 71 66 61 57 53 50 49
56 60 64 67 70 73 76 79 81 83 85 87 90 94 97 100 101 103 106 109 110 112 116 121 123 123 120 116 113 108 101 93 85 81 74 72 67 63 60 57 52 46 45
60 64 68 71 74 76 79 82 81 85 87 89 92 95 98 101 102 106 109 111 112 116 120 124 123 122 118 114 109 103 95 86 81 76 71 68 64 61 58 55 52 46 42
65 69 71 73 76 79 82 82 85 88 90 92 95 97 101 105 107 110 111 113 116 119 123 124 122 119 114 110 103 97 89 82 79 73 68 64 61 58 55 54 51 47 43
68 70 72 76 80 81 82 85 88 90 92 95 98 101 104 106 109 111 114 115 119 121 124 124 121 117 112 106 97 91 85 78 75 69 64 60 59 56 54 52 51 47 42
69 73 77 79 80 83 85 87 90 92 96 98 101 105 106 108 110 113 116 119 121 121 122 121 117 113 107 99 91 85 80 75 71 65 60 57 56 54 53 51 48 47 43
74 76 78 80 82 85 88 92 94 97 100 102 103 104 108 111 114 116 120 122 121 119 117 115 111 108 100 91 84 80 75 70 65 61 57 55 54 52 51 48 45 43 42
75 77 80 83 87 90 93 95 98 98 99 101 103 104 108 111 117 123 123 122 120 115 112 109 106 99 91 85 80 74 69 65 63 59 55 53 52 51 49 45 42 40 38
78 80 83 86 89 91 93 94 96 99 101 104 106 108 108 113 119 119 119 119 117 114 109 102 96 91 86 82 77 70 65 63 60 57 54 52 49 47 46 43 40 38 35
78 82 87 89 91 93 94 96 99 102 105 107 107 109 112 114 114 113 112 111 113 111 103 97 90 83 79 76 72 66 63 61 58 56 53 50 47 45 44 42 38 36 33
85 88 90 92 93 94 97 101 104 105 106 109 112 114 115 113 111 111 110 109 106 100 94 89 85 79 74 69 66 64 62 59 57 54 51 48 45 43 41 39 36 34 31
93 93 95 97 97 97 97 98 100 105 110 114 116 115 113 113 112 110 107 104 100 94 89 84 79 75 70 65 63 62 60 57 54 52 48 44 42 40 39 36 33 32 29
95 95 96 99 97 97 99 100 103 106 111 114 113 112 112 110 110 107 100 94 89 86 82 78 74 70 68 64 62 59 57 55 51 48 44 42 39 37 36 33 31 29 26
94 96 100 102 100 101 103 105 108 111 110 109 107 107 108 109 107 100 93 86 81 79 75 73 70 68 65 62 59 56 53 50 47 44 41 38 36 34 34 31 29 27 25
97 101 104 102 102 105 107 109 111 110 110 105 106 103 103 102 98 93 87 82 77 72 70 69 67 64 62 58 54 52 48 45 42 40 37 35 34 33 31 29 27 25 23
100 102 103 104 106 107 110 110 110 111 108 107 102 101 97 91 87 83 80 77 73 70 68 66 65 61 57 53 48 48 44 41 39 37 36 34 31 31 29 28 26 24 22
104 104 106 107 109 110 111 111 111 110 107 103 100 97 91 85 80 76 74 72 68 65 63 63 61 58 53 48 44 44 42 39 37 35 34 31 29 29 27 26 24 23 22
106 107 108 110 111 112 113 111 111 107 103 99 94 89 84 80 76 73 71 68 65 62 59 57 56 53 50 45 43 41 39 36 34 33 32 29 28 27 26 25 23 22 21
108 109 111 112 114 113 113 111 106 103 98 92 87 83 80 75 73 70 68 66 63 59 56 53 49 48 47 42 39 39 37 34 31 31 30 27 26 26 25 24 23 21 20
111 112 113 113 113 113 109 107 102 97 93 87 83 80 76 72 69 68 65 62 59 56 53 49 46 45 43 41 36 36 33 33 29 29 28 26 25 24 24 23 22 20 19
112 113 113 113 111 109 105 100 95 91 87 83 80 76 72 69 67 64 61 57 55 52 49 46 43 42 40 38 35 33 31 30 27 27 26 25 22 22 23 23 21 20 20

GFSGL_250_spd_042.txt.gz
Wind_Speed
37 38 49 48 46 50 52 54 57 60 63 65 66 69 77 82 84 85 86 88 92 94 95 98 101 101 101 103 105 110 112 113 114 119 117 114 106 106 98 89 81 77 74
40 42 50 55 53 50 50 54 59 63 65 68 70 77 81 84 84 86 89 92 96 97 99 100 102 103 105 109 112 114 115 117 120 120 118 114 107 100 91 83 78 73 69
41 44 44 45 46 49 54 59 63 64 68 72 77 82 82 84 87 89 93 96 97 100 101 102 104 107 110 113 114 116 118 121 123 119 116 112 105 96 87 80 76 71 65
44 45 45 47 50 54 58 63 67 70 73 77 79 83 85 88 90 92 96 99 99 101 104 106 109 111 113 115 117 119 122 125 123 118 112 108 103 93 83 77 74 68 61
43 48 51 52 55 59 63 67 71 74 77 79 82 85 87 91 93 95 98 100 102 105 108 110 111 113 115 117 120 123 126 125 120 115 109 105 97 88 79 75 70 64 59
51 54 55 57 60 64 68 71 74 77 79 82 85 89 91 92 95 98 99 100 104 106 108 110 113 115 118 119 122 127 127 123 117 111 104 99 90 83 76 71 66 61 58
54 57 60 62 65 67 70 73 76 79 82 85 87 89 92 95 96 98 100 102 103 106 109 112 115 119 119 123 126 126 123 119 114 105 100 93 85 78 73 68 63 59 56
51 54 58 62 65 68 72 76 78 82 84 86 89 92 95 97 98 99 101 102 104 108 111 114 118 120 124 126 127 123 119 113 106 99 93 86 80 74 69 63 59 58 54
51 55 59 63 68 71 74 77 80 82 84 88 90 91 93 97 98 100 102 103 106 111 113 116 120 124 127 125 123 119 113 109 97 90 86 80 76 70 65 60 58 57 55
56 60 63 66 69 72 75 77 80 83 83 86 91 93 96 99 101 104 106 107 108 110 114 119 122 125 125 121 118 112 107 102 92 82 82 75 69 65 62 58 57 55 53
58 61 64 66 70 73 76 78 79 81 85 89 92 95 98 100 103 105 107 108 109 111 116 119 120 121 119 117 112 106 101 94 86 81 74 69 64 62 59 57 55 53 51
60 63 66 69 72 74 75 78 81 86 91 94 96 98 101 102 102 105 108 110 114 117 116 116 117 113 111 111 107 98 93 86 82 75 71 66 60 59 56 55 53 50 48
62 64 66 69 73 75 79 84 89 92 95 98 99 100 102 104 106 107 110 114 117 119 119 116 111 109 108 104 97 90 85 81 76 70 65 62 59 57 54 52 49 47 44
63 67 70 75 79 83 88 94 98 100 100 98 98 101 105 106 106 108 110 112 115 116 111 108 109 107 100 94 88 85 80 75 70 66 63 60 56 54 51 49 46 43 41
70 74 78 82 87 92 96 98 96 94 96 98 101 104 105 103 105 108 110 111 111 106 105 105 102 97 91 88 83 79 75 71 67 64 61 57 53 50 48 46 43 40 38
77 82 84 88 94 95 96 94 95 97 98 102 103 102 104 105 107 108 110 109 106 103 99 95 91 88 85 81 77 74 71 67 64 60 57 53 50 47 44 42 40 37 35
82 87 90 93 95 93 96 95 96 98 100 102 104 106 109 110 111 109 107 106 104 99 94 89 85 82 79 76 73 68 65 62 60 56 53 49 46 43 41 40 37 35 33
87 89 89 89 89 90 92 96 98 99 102 105 106 108 111 114 112 108 104 100 96 92 85 82 79 77 74 70 68 64 62 59 56 52 48 45 42 40 38 36 34 33 31
82 86 89 89 92 94 96 98 101 104 106 107 109 111 112 112 110 104 99 92 86 83 80 77 74 72 69 66 63 61 57 54 51 48 44 41 39 37 35 34 32 31 30
92 91 90 93 98 99 101 103 106 107 108 110 112 111 112 110 105 99 92 87 83 79 76 73 70 67 66 62 59 55 52 50 47 43 41 39 37 35 34 32 31 29 27
104 106 106 106 107 107 106 107 108 109 111 113 113 112 108 102 95 89 85 81 78 75 73 70 67 65 62 58 54 50 47 44 44 40 39 37 35 32 31 30 29 27 25
113 115 118 115 112 110 110 110 111 112 113 114 114 108 101 93 87 84 80 76 74 71 68 67 64 60 57 54 51 46 42 40 41 37 36 34 32 29 29 29 27 26 24
117 119 119 115 114 114 114 114 113 114 115 113 107 100 94 88 83 80 76 73 70 67 65 63 59 56 53 50 47 44 40 37 38 35 33 33 30 27 27 27 26 24 24
121 120 117 117 117 117 116 115 115 114 111 105 98 94 89 85 80 77 73 69 66 64 61 58 56 53 49 46 45 42 38 35 36 33 32 31 28 26 26 26 24 24 23
121 120 118 118 118 117 116 115 112 109 103 98 93 89 84 79 76 73 69 65 62 59 57 55 53 49 45 43 41 40 37 34 34 31 29 29 27 24 25 25 24 23 22
121 117 118 118 117 115 114 111 106 101 96 92 89 85 80 76 73 69 65 61 58 56 54 52 49 46 43 40 39 36 34 32 31 29 28 28 25 23 23 24 23 22 21

GFSGL_250_spd_045.txt.gz
Wind_Speed
41 41 44 46 47 57 60 60 61 60 63 66 69 69 72 76 80 84 86 88 94 95 96 97 98 100 103 105 107 109 111 111 112 114 118 120 120 121 118 110 107 104 98
43 44 44 46 45 48 58 62 62 63 65 67 67 70 75 80 84 86 89 92 96 94 95 98 102 105 107 109 111 112 113 115 117 117 120 123 124 123 115 107 104 102 95
44 43 43 43 45 49 53 60 70 73 72 70 71 74 80 82 86 88 92 93 95 98 100 102 105 106 108 111 112 113 116 118 119 120 120 125 123 118 110 105 102 95 87
41 43 44 47 50 52 56 60 62 65 67 71 74 78 81 84 88 89 90 91 95 99 101 102 105 107 111 113 115 118 119 119 120 122 124 124 120 113 108 103 95 88 81
41 41 41 45 49 52 56 60 64 68 71 74 77 81 83 86 87 90 92 93 95 96 100 104 106 109 111 114 116 117 119 121 125 128 126 122 116 112 108 98 87 81 79
44 47 50 50 52 57 60 64 67 70 73 76 80 81 82 85 88 91 92 90 93 97 101 105 109 111 113 113 114 118 122 125 128 129 125 121 116 113 103 92 83 78 74
48 51 53 55 55 57 60 63 67 69 71 72 76 80 84 87 89 91 89 92 97 101 106 109 111 114 115 117 119 118 123 127 127 126 122 119 113 107 94 85 79 72 69
43 42 43 45 47 49 52 56 61 66 70 74 78 81 85 87 86 89 93 98 103 107 110 112 114 115 119 122 123 124 123 122 123 119 115 111 108 97 89 79 75 69 65
45 47 48 50 53 55 58 62 65 69 73 75 79 81 84 87 92 96 100 104 107 109 110 111 114 117 119 121 124 123 122 123 123 118 110 103 96 90 86 75 70 64 63
49 51 53 55 58 60 62 64 67 70 73 75 79 84 89 94 99 104 107 109 108 107 107 111 114 117 118 119 122 125 122 119 117 113 106 95 87 82 78 73 67 62 60
53 55 56 57 59 61 63 63 66 70 74 80 86 92 96 100 103 104 106 106 105 105 107 109 112 116 118 120 121 118 117 116 109 104 98 90 81 75 73 68 64 61 58
51 52 53 56 58 60 64 68 73 78 82 86 91 95 98 101 102 102 102 103 107 108 109 110 113 115 118 119 118 117 113 106 100 93 88 84 77 71 67 64 63 61 58
53 56 59 62 65 66 69 74 79 83 86 90 93 96 97 99 100 100 104 105 106 110 112 114 116 117 117 117 114 108 105 100 93 86 81 78 73 69 64 60 58 56 54
57 60 62 63 65 70 74 76 79 82 84 90 95 100 102 100 99 101 102 104 108 111 113 115 117 118 115 110 103 100 95 90 86 81 77 74 68 63 60 57 55 53 51
62 64 65 68 70 72 71 71 75 83 91 92 90 90 93 96 99 103 105 108 111 112 110 112 111 106 102 99 96 92 87 82 80 77 73 69 64 61 56 54 51 48 47
62 64 67 70 72 68 74 83 93 97 101 95 94 99 102 102 104 106 109 113 112 111 111 107 101 97 95 93 90 85 81 78 74 72 69 65 61 57 54 50 47 45 43
69 70 67 70 74 83 89 92 97 104 104 104 106 107 112 110 110 111 114 112 112 112 105 99 95 92 90 87 83 79 75 73 69 68 64 60 56 53 50 46 44 42 40
75 79 79 81 86 89 94 101 107 108 110 113 114 118 117 116 115 115 116 115 114 107 101 94 91 87 83 80 77 74 71 68 66 62 58 54 51 49 46 43 42 39 37
81 85 87 92 98 105 108 108 111 119 121 125 127 121 117 117 117 118 118 115 108 101 95 90 86 83 78 76 73 70 67 63 60 57 54 52 49 45 43 42 40 37 35
92 97 97 100 105 113 113 115 125 126 128 132 124 122 121 120 121 121 117 108 101 96 89 84 82 80 76 72 69 66 62 58 55 53 51 49 46 43 41 39 37 35 33
102 102 105 110 115 117 122 126 125 129 134 125 123 121 122 123 123 118 108 101 95 89 84 80 78 76 71 68 65 61 57 54 51 48 48 47 43 41 38 37 35 32 31
112 114 119 120 122 124 128 131 134 128 122 125 123 125 125 123 118 108 101 96 90 84 80 77 75 71 66 63 59 57 54 50 47 45 44 45 41 39 36 34 33 31 30
116 120 122 126 128 130 133 133 128 127 125 125 127 124 122 115 107 101 96 90 85 81 77 73 70 66 62 58 55 53 50 47 44 41 41 43 39 37 34 33 32 30 29
119 122 128 132 131 133 130 129 128 125 127 125 123 120 113 107 101 95 90 86 82 77 72 68 64 62 59 55 52 49 48 44 41 39 40 40 37 35 33 32 30 29 27
127 129 132 132 131 128 128 123 127 126 123 122 116 110 104 100 94 89 85 81 76 71 67 63 61 60 56 52 49 46 44 41 39 37 37 37 34 33 31 30 29 27 26
128 127 126 124 127 127 126 123 123 122 116 110 105 101 96 92 88 83 79 74 70 67 64 61 59 56 52 48 44 42 40 39 38 36 35 34 31 31 29 27 27 26 25

GFSGL_250_spd_051.txt.gz
Wind_Speed
34 39 38 38 42 49 47 58 54 55 58 62 65 68 73 75 77 77 78 80 81 84 90 95 97 98 101 102 107 108 107 110 111 113 116 120 117 115 115 114 114 113 113
34 40 40 36 35 36 39 55 57 61 65 65 68 68 68 69 71 77 83 86 88 90 91 94 95 96 98 98 99 103 108 112 115 116 112 110 110 111 112 115 116 116 117
41 45 41 35 47 59 55 63 65 63 64 63 65 65 65 67 69 71 73 78 82 84 86 89 91 88 91 96 101 104 107 107 106 105 103 106 105 108 112 114 115 117 117
45 51 50 46 52 60 62 61 60 61 62 62 62 65 68 70 71 72 74 76 79 79 79 82 85 89 91 91 91 94 96 99 103 103 106 102 109 112 114 116 118 118 114
49 51 50 49 52 54 55 58 59 61 62 65 65 66 67 69 70 69 68 70 73 77 81 84 87 88 82 84 92 93 99 100 101 103 104 106 107 111 116 119 120 116 110
40 42 44 46 50 49 51 54 55 56 57 57 57 58 59 62 63 66 71 75 77 79 81 83 84 77 88 93 99 100 102 103 101 101 100 104 109 115 119 120 119 115 106
26 31 37 42 45 48 51 52 53 54 55 57 59 61 63 65 68 70 72 74 77 79 80 74 78 85 89 92 98 98 99 103 105 104 108 112 116 118 117 115 113 108 100
29 28 31 33 39 44 48 51 54 55 57 60 62 64 65 66 67 70 73 76 77 78 73 75 83 89 93 99 98 98 102 106 107 110 117 118 118 118 115 112 107 100 95
33 34 36 37 36 35 34 39 46 54 60 63 64 64 64 67 72 73 73 75 69 70 77 83 89 98 105 104 103 98 102 107 110 114 117 119 117 113 111 106 101 94 89
41 44 44 44 44 44 46 47 50 50 56 61 66 66 63 60 61 63 67 68 68 77 84 90 94 102 109 106 104 105 109 113 112 112 117 116 111 108 105 101 95 89 83
49 50 51 52 52 52 53 51 52 57 62 64 63 63 64 68 70 72 74 72 73 85 90 96 101 109 113 110 113 118 117 111 112 115 110 105 102 100 98 95 89 85 79
53 54 55 57 59 60 59 61 63 63 68 69 66 67 71 74 75 78 84 79 80 91 98 103 109 115 119 116 119 116 114 114 114 109 106 102 97 96 93 88 84 81 76
59 63 64 63 67 68 69 68 70 71 72 75 77 73 74 78 82 88 87 86 90 97 104 111 116 120 119 122 117 116 119 120 116 111 104 99 94 91 89 84 79 75 71
64 68 68 67 71 75 75 74 73 75 77 79 82 83 81 80 79 83 87 92 98 103 111 116 122 118 120 121 123 125 124 120 116 107 102 96 90 87 86 79 73 67 65
72 75 75 75 76 80 82 83 80 81 83 87 87 94 92 87 84 88 93 97 104 111 118 122 123 125 122 127 128 125 124 121 113 106 99 94 87 81 81 74 68 62 59
78 79 79 81 83 86 89 87 85 87 90 95 96 98 97 96 92 92 98 105 112 118 123 124 126 126 127 125 124 123 121 114 108 100 96 89 83 76 73 68 64 59 57
81 83 86 86 89 92 88 88 91 95 99 99 103 104 102 100 97 99 106 112 119 123 127 126 125 124 128 128 124 119 113 106 100 94 90 85 77 71 68 63 60 57 53
84 86 89 91 93 90 93 94 96 101 102 106 109 105 103 103 106 108 114 120 125 128 129 128 129 129 126 125 118 112 106 100 95 91 85 78 72 67 64 59 56 54 51
86 91 93 94 93 95 97 99 103 103 108 112 111 106 104 109 114 116 120 124 129 130 129 131 132 130 126 118 111 104 97 94 91 85 79 72 67 63 59 56 53 51 47
94 95 93 94 99 101 103 106 109 111 115 112 110 106 108 113 117 120 123 126 129 130 132 132 127 122 115 109 103 96 93 89 83 78 73 68 62 59 56 53 50 48 43
95 94 97 101 105 109 112 115 113 117 113 113 111 112 115 118 120 124 127 129 131 130 131 125 119 115 109 102 96 92 88 81 76 72 68 63 58 55 52 48 46 44 39
96 100 104 109 114 115 115 114 114 114 114 114 115 118 119 121 124 127 128 132 130 130 124 117 111 106 101 96 91 86 80 75 70 65 63 58 53 51 48 44 42 39 36
104 107 111 115 116 114 115 115 115 115 116 117 117 118 120 123 125 127 131 129 127 121 113 108 104 100 96 90 83 77 73 69 65 61 57 53 50 46 44 41 38 36 34
112 116 117 118 116 117 115 115 118 118 116 116 118 122 124 126 129 128 124 122 115 111 107 101 97 93 89 83 77 71 66 63 61 56 52 49 47 44 41 38 36 33 32
118 119 116 115 116 116 117 119 119 116 117 120 122 123 126 127 123 121 116 111 107 104 99 95 89 85 80 75 70 66 63 59 55 52 48 45 43 41 38 35 34 31 30
114 115 115 115 115 117 117 116 116 117 119 121 125 125 122 119 115 110 106 103 99 96 91 86 82 77 72 68 63 60 57 53 50 47 44 41 39 37 35 33 31 29 28

GFSGL_250_spd_054.txt.gz
Wind_Speed
38 41 36 31 24 31 37 43 42 38 33 42 49 58 58 60 64 70 74 78 79 77 79 81 83 85 88 90 91 91 94 88 89 89 86 95 97 101 106 109 109 107 105
37 35 39 40 35 38 30 51 37 46 50 57 63 68 72 72 78 74 72 73 74 76 79 81 84 85 87 90 91 86 88 86 88 85 89 94 102 107 108 108 109 106 105
40 46 42 47 43 42 42 50 47 49 52 63 69 73 78 78 76 74 76 76 77 80 82 83 86 83 80 82 85 84 84 85 84 86 89 96 100 102 105 109 107 106 108
41 46 46 51 50 49 49 55 60 67 67 71 74 78 77 75 73 74 77 79 78 75 74 76 79 80 80 80 82 86 85 84 88 92 94 99 99 103 108 108 103 106 110
44 46 48 51 52 50 53 59 66 70 71 74 74 71 69 70 70 70 71 72 73 75 76 77 77 77 80 84 81 78 81 87 89 92 100 101 102 102 104 103 108 111 112
32 31 35 34 36 34 46 54 61 65 67 69 69 70 70 70 71 72 73 74 75 76 76 76 78 82 81 80 77 79 85 87 91 98 101 103 101 105 104 106 109 113 112
23 27 30 35 43 53 58 53 46 49 46 44 44 40 42 46 50 55 63 69 73 76 78 80 75 72 75 80 82 86 90 91 96 104 103 107 106 108 108 110 114 115 111
25 29 32 34 37 39 40 41 39 37 40 41 42 42 47 50 54 55 57 63 69 71 73 75 79 82 80 85 84 83 86 94 103 110 113 112 113 114 117 117 117 112 108
35 31 33 37 40 40 38 40 39 41 41 43 47 50 54 57 57 59 62 65 65 66 71 77 84 85 87 82 79 80 89 97 107 113 115 115 118 121 122 118 113 107 103
44 43 42 44 44 45 47 49 50 51 52 53 55 59 63 63 65 65 66 70 72 74 72 72 78 80 77 83 83 87 92 98 107 113 115 120 123 124 126 119 112 104 100
47 47 49 51 51 54 54 55 57 58 61 61 64 67 70 71 70 70 72 74 78 80 80 81 82 83 81 83 88 94 98 104 113 116 119 123 125 126 119 114 107 101 97
52 53 56 58 59 59 60 62 64 66 67 66 71 71 76 74 75 74 77 79 84 85 87 88 88 87 87 90 94 100 106 112 118 120 122 125 126 121 113 107 102 98 93
59 61 65 68 67 63 65 67 69 70 71 72 73 78 80 79 81 80 82 86 87 89 91 93 92 92 92 97 102 107 113 118 121 125 125 126 121 116 109 102 98 94 88
66 68 72 74 74 74 72 73 75 76 76 77 81 84 83 85 85 88 91 91 91 94 95 94 96 95 95 101 107 113 118 122 126 126 126 121 116 111 106 98 96 90 82
73 73 77 78 78 80 78 77 79 78 79 84 88 88 87 91 92 96 96 95 99 101 103 101 98 100 102 106 113 116 121 128 129 129 125 119 112 106 100 95 88 84 78
77 77 79 80 82 83 83 82 82 83 88 92 92 89 93 95 96 100 100 102 104 106 106 102 101 103 106 113 117 120 127 132 131 129 120 113 106 100 97 90 83 79 71
81 81 84 84 86 86 84 86 84 88 93 93 92 96 98 100 104 104 105 108 110 109 105 102 104 109 114 116 121 126 130 130 127 121 113 106 99 96 91 83 77 74 66
85 86 87 86 88 87 85 85 90 94 95 93 98 101 105 109 112 114 113 113 112 110 104 107 110 114 115 119 126 129 129 125 119 112 106 99 94 88 83 76 71 68 60
88 90 89 89 91 91 91 95 94 96 96 101 105 108 112 117 121 121 117 114 113 107 110 112 114 117 121 125 128 127 123 116 110 105 99 93 87 81 75 71 66 61 56
88 92 86 89 93 92 97 97 95 100 105 109 112 114 118 124 123 118 119 115 110 111 113 116 119 122 125 127 125 120 115 110 103 97 91 85 80 75 70 66 61 56 53
92 95 95 93 96 100 97 94 100 106 111 115 118 122 122 120 120 120 114 111 111 115 117 120 122 123 124 121 117 111 106 100 95 90 85 80 75 68 64 60 57 52 49
96 96 96 97 98 100 101 105 109 113 115 120 124 121 121 122 118 112 110 111 116 119 122 121 121 121 116 114 108 103 97 93 87 82 78 74 67 63 59 56 51 48 46
95 96 101 104 107 107 110 113 116 120 125 125 123 123 119 114 111 109 112 117 120 120 118 118 117 113 110 104 98 93 88 85 81 76 71 65 61 59 54 51 47 44 42
101 105 107 108 110 113 114 118 122 124 121 122 120 115 112 111 112 115 117 116 115 116 115 112 108 105 99 95 91 86 81 77 72 68 64 60 56 54 50 46 44 41 38
105 109 110 111 115 118 121 119 119 119 118 115 112 112 112 113 115 113 112 113 112 112 108 103 98 94 92 88 83 77 73 70 65 62 59 55 52 50 46 42 40 39 36
109 112 116 119 121 120 119 118 114 111 111 111 112 113 113 110 109 109 110 109 106 101 97 94 90 87 84 79 74 70 66 62 59 56 54 51 48 46 43 39 38 36 33

GFSGL_250_spd_057.txt.gz
Wind_Speed
47 48 49 44 46 46 46 46 41 32 36 37 44 48 51 54 57 62 68 70 76 79 81 84 83 81 82 83 84 84 81 79 81 84 83 84 89 94 94 95 97 97 102
42 45 45 44 47 46 47 46 37 33 40 48 48 50 53 61 65 71 74 78 79 81 83 80 79 80 78 78 78 80 81 82 84 81 85 90 91 92 93 99 102 102 106
32 35 37 41 44 40 38 40 45 48 45 48 50 60 65 63 68 73 81 84 86 82 77 75 73 75 75 75 76 77 78 81 84 85 79 79 87 92 96 99 102 102 99
26 32 37 40 40 43 40 44 48 54 57 55 62 66 64 71 79 83 82 77 71 73 76 72 66 64 67 70 73 78 80 82 82 77 86 91 94 96 95 96 90 96 100
20 28 32 37 43 45 52 53 54 57 57 60 64 68 73 76 75 75 63 55 59 58 56 54 54 56 60 65 70 74 76 80 83 89 92 93 93 91 88 88 92 94 99
23 23 23 27 34 39 42 46 48 51 54 58 60 61 64 63 60 57 54 51 49 52 56 59 60 61 62 64 66 65 67 72 77 82 88 92 89 95 89 92 94 98 101
21 23 25 29 33 35 37 41 43 45 49 52 52 57 55 56 55 51 52 54 58 60 61 63 63 66 69 70 70 71 73 77 81 82 83 88 87 88 91 92 97 101 109
26 27 29 29 30 31 35 38 40 42 45 51 51 52 55 56 56 59 62 63 64 65 65 66 69 71 74 74 75 76 79 81 82 85 89 93 93 92 95 98 102 106 113
32 32 35 38 38 37 39 42 43 45 49 52 55 57 59 59 61 65 67 67 68 69 69 71 75 78 76 76 78 79 82 86 90 94 95 96 96 99 98 103 109 114 116
40 42 44 45 45 47 47 48 49 52 57 60 61 62 64 65 66 68 70 70 69 74 75 77 79 80 83 83 83 84 87 90 94 98 98 97 101 103 106 113 117 119 118
50 54 49 49 51 52 54 55 56 60 63 67 65 66 67 70 71 73 74 75 78 82 81 84 85 87 89 91 90 90 90 91 96 98 96 100 101 105 110 116 121 122 120
56 60 59 57 56 56 59 62 62 66 68 68 71 72 74 76 74 74 76 80 84 85 83 89 92 93 95 97 95 96 97 101 102 102 101 102 103 107 112 118 124 125 123
60 62 62 61 66 65 67 66 68 70 73 74 75 78 79 77 77 77 79 83 86 87 89 94 97 100 103 103 102 101 105 106 106 105 103 104 107 110 115 119 123 122 119
68 68 70 69 71 69 69 70 73 76 77 79 80 80 80 81 82 83 86 87 90 92 96 100 102 103 107 106 104 107 110 108 105 105 105 107 109 113 117 119 120 115 108
73 74 72 75 74 74 72 73 78 80 82 84 83 84 85 86 88 90 92 93 93 97 102 102 105 108 111 110 112 115 114 109 108 108 107 109 112 116 119 119 114 106 100
77 75 78 78 78 78 79 81 81 84 86 87 89 90 90 91 91 93 98 97 99 102 105 108 111 113 114 118 122 118 111 110 110 109 111 113 115 117 117 116 109 100 94
78 82 81 82 84 86 85 85 86 88 91 92 94 93 94 94 95 99 101 99 103 107 111 115 116 117 122 125 120 114 113 113 110 111 114 116 117 116 113 107 101 94 87
86 84 86 90 88 90 87 87 90 93 95 97 95 96 97 95 98 104 104 106 109 112 115 118 124 127 126 120 115 114 114 112 111 114 115 116 113 109 103 98 93 87 80
86 87 88 91 90 91 91 92 94 97 100 99 98 102 98 101 104 109 110 111 114 117 122 127 127 126 122 117 114 113 112 112 113 113 114 110 106 100 95 90 86 79 74
85 85 87 91 90 89 91 95 98 96 98 101 102 101 103 104 110 111 114 117 120 126 132 129 128 123 116 115 114 113 113 113 112 110 107 103 98 92 87 82 77 72 67
82 82 84 86 88 90 93 94 97 101 103 102 102 105 108 112 115 118 119 124 129 131 129 127 120 115 115 114 113 112 111 110 107 104 100 96 92 86 78 75 71 66 64
85 86 87 90 92 94 95 97 100 102 102 105 111 113 113 118 120 123 127 131 129 129 123 117 114 114 114 112 110 108 107 104 100 96 93 89 83 77 73 69 64 61 58
89 90 91 92 94 96 99 102 103 106 110 111 114 118 120 123 127 130 127 126 123 116 113 113 114 113 111 109 106 102 99 96 92 87 85 81 75 70 67 63 59 57 53
93 94 96 98 100 102 106 108 109 112 115 117 118 121 126 127 125 122 121 116 113 113 115 114 111 109 104 101 97 94 91 87 83 80 77 73 68 64 62 59 55 52 47
97 99 101 103 104 106 108 110 112 114 117 121 122 122 122 120 120 116 113 113 114 113 109 107 102 98 96 94 91 87 82 79 75 73 70 65 62 59 57 53 50 46 41
100 102 104 105 106 107 110 113 114 117 119 120 121 121 119 116 113 112 111 110 106 104 99 96 94 93 91 88 83 78 75 72 70 66 63 59 56 55 52 48 44 41 38

GFSGL_250_spd_063.txt.gz
Wind_Speed
25 37 42 41 38 39 38 36 38 37 36 40 44 48 49 50 51 53 55 58 58 54 56 56 55 57 55 56 60 55 58 64 59 61 64 64 65 66 67 69 73 74 78
12 20 26 31 43 47 43 42 42 44 44 45 46 45 48 51 50 52 49 46 44 48 51 51 58 54 56 64 64 63 63 60 67 69 67 68 69 69 70 73 77 79 80
18 15 16 21 27 33 39 41 43 44 42 40 41 44 50 51 50 46 45 46 49 47 48 49 55 63 64 63 62 63 65 68 70 67 69 70 72 75 78 77 80 82 86
21 19 18 18 19 22 26 29 31 33 36 40 42 45 43 40 40 39 40 44 53 49 54 55 59 58 59 63 64 67 68 69 71 71 72 75 78 79 80 77 81 83 88
24 24 22 21 22 21 19 19 19 20 24 26 29 32 33 35 35 35 35 37 42 44 45 50 55 59 62 64 65 66 67 68 72 75 75 76 77 77 78 81 84 86 90
26 28 27 27 27 27 26 24 25 26 28 28 31 32 34 35 36 35 39 41 45 47 50 54 54 57 59 62 66 67 68 69 70 74 75 77 77 79 81 84 86 89 93
33 34 32 32 33 34 34 33 31 29 29 32 34 35 38 42 44 45 47 48 53 55 59 62 63 63 65 67 69 67 69 71 73 76 79 79 84 84 85 87 90 94 98
39 41 41 37 36 40 43 42 41 41 43 43 40 40 41 44 46 48 52 53 55 59 61 62 64 67 70 71 72 73 75 75 76 79 82 85 87 88 91 93 94 98 103
44 44 44 45 45 46 46 47 47 48 50 55 53 51 53 50 51 54 57 61 64 67 67 68 73 75 78 80 80 81 80 80 83 84 86 87 88 91 94 96 98 102 106
45 49 50 52 50 54 55 51 53 55 58 58 58 57 59 60 61 61 64 66 71 72 72 73 75 77 81 84 83 83 84 85 88 90 90 91 92 96 99 100 105 107 110
61 55 57 58 57 57 58 61 61 58 62 64 64 64 68 72 71 71 72 74 75 79 78 81 82 83 82 86 87 88 89 89 93 94 94 94 96 100 103 105 110 110 115
67 66 64 58 65 69 69 68 67 65 64 68 72 75 74 75 75 76 77 80 85 85 85 88 87 85 86 87 89 92 92 92 96 97 97 99 101 104 107 111 113 117 121
68 71 70 68 68 72 73 72 73 73 77 81 81 84 84 84 82 83 85 84 86 90 89 91 92 93 92 93 96 95 94 97 100 101 101 104 105 108 111 115 118 122 124
73 73 75 79 79 77 77 77 76 79 77 76 78 83 85 86 88 92 93 89 90 92 95 96 96 100 99 101 100 98 99 101 103 105 107 107 108 111 115 118 121 125 128
81 81 84 87 85 84 82 82 86 86 88 89 89 90 90 95 95 94 93 93 94 96 99 100 102 102 104 104 102 100 102 104 107 109 108 109 112 115 119 122 127 130 131
86 90 86 91 92 92 91 90 90 92 94 94 94 95 96 99 100 100 97 97 99 100 101 102 103 106 105 104 102 104 107 109 111 111 110 114 118 122 124 128 133 133 131
94 93 92 93 97 97 96 96 94 96 98 99 101 100 98 98 97 97 99 101 103 103 103 107 108 109 108 107 107 109 111 113 112 114 118 121 124 127 130 133 133 130 124
100 97 97 100 103 98 97 94 96 95 96 98 98 97 96 97 98 100 101 103 104 105 107 111 111 111 110 111 112 113 114 114 118 121 123 126 128 132 133 130 126 121 118
96 91 96 100 99 96 91 93 97 98 98 98 97 99 98 101 103 104 104 106 107 108 113 113 113 113 113 114 115 115 117 120 123 126 128 130 131 130 127 123 119 114 111
86 85 89 92 99 97 96 100 99 100 102 101 99 100 103 106 107 108 109 110 110 114 115 115 115 116 116 115 117 120 122 125 127 128 130 129 125 123 118 114 110 105 101
81 87 94 98 101 101 104 105 104 104 105 106 105 105 107 108 111 112 113 114 116 116 116 116 116 117 117 119 120 122 124 126 127 126 123 121 116 111 107 102 99 95 92
87 90 92 96 98 102 107 111 111 110 110 110 112 112 113 114 114 114 116 118 116 116 117 117 116 117 118 119 121 122 123 123 121 118 114 110 105 100 98 95 93 88 83
89 92 94 98 104 108 110 115 114 112 112 112 113 114 115 115 116 115 114 114 116 118 117 116 116 117 118 119 119 118 117 115 112 106 103 98 95 92 89 86 83 77 73
94 96 100 102 106 109 110 112 112 111 111 112 112 113 113 112 113 114 115 114 115 115 114 115 116 117 117 114 112 109 106 102 99 96 93 91 87 83 79 76 73 70 66
98 99 101 102 103 104 105 106 107 107 107 107 107 108 110 113 113 112 112 113 113 114 113 113 113 110 108 105 102 98 94 92 89 87 84 81 77 74 71 68 65 62 58
91 92 92 92 92 94 96 99 101 101 101 104 107 107 106 108 109 108 109 110 110 110 108 106 104 100 97 93 90 89 87 83 80 78 75 72 69 68 65 61 58 55 52

GFSGL_250_spd_066.txt.gz
Wind_Speed
12 28 37 37 35 35 36 38 39 38 39 42 43 46 46 50 50 49 51 50 52 54 53 50 51 50 43 43 42 58 60 58 60 61 64 65 68 69 69 71 72 73 75
7 8 11 19 30 40 46 43 40 45 43 42 42 44 48 48 50 51 53 54 55 53 52 52 43 38 40 46 49 56 59 62 64 68 67 68 67 67 69 70 72 73 76
14 12 11 10 12 16 21 27 34 46 53 49 49 51 55 55 57 53 53 50 48 48 44 42 40 37 42 43 52 55 60 66 68 67 66 68 70 68 70 72 75 77 80
19 18 15 13 15 14 14 16 19 24 30 35 39 41 43 43 45 46 46 44 40 41 40 40 45 44 42 45 52 58 61 64 67 68 70 70 70 70 73 74 76 80 83
25 23 21 21 18 18 18 18 18 19 19 21 24 27 28 30 31 29 31 33 33 36 39 39 42 47 49 54 58 64 65 67 68 70 72 76 78 78 81 80 81 83 84
33 31 30 29 29 27 26 27 27 23 25 26 26 29 31 33 35 32 34 32 36 38 41 43 47 50 54 57 61 65 68 72 74 80 81 84 86 89 87 87 87 88 92
39 38 36 36 38 35 34 33 36 36 36 34 35 37 40 42 45 45 46 46 47 47 50 52 54 55 58 62 67 70 73 74 77 81 83 86 90 87 91 93 92 93 97
45 44 42 41 39 43 43 42 40 43 44 41 46 46 46 49 52 53 53 54 57 57 57 63 65 61 63 68 71 75 79 80 85 85 87 90 89 93 96 96 99 100 100
50 51 49 45 44 43 46 49 48 51 52 53 53 55 56 57 58 59 63 63 64 64 65 73 73 72 73 75 80 81 87 85 86 91 93 94 97 100 98 102 102 102 103
57 56 54 55 52 50 52 54 57 59 59 57 57 57 60 65 67 67 68 71 68 72 76 78 77 76 78 82 85 90 88 95 97 97 99 101 102 105 103 106 106 105 106
59 60 57 58 58 58 61 63 64 67 65 65 64 65 66 68 67 71 73 75 77 79 79 80 82 84 88 90 89 93 94 96 98 102 105 106 106 105 108 108 106 105 108
66 64 65 65 65 63 64 67 68 67 72 71 70 71 72 74 73 71 73 76 81 84 85 88 89 91 96 95 99 98 97 100 102 105 107 107 106 108 109 108 107 108 111
68 68 69 70 68 68 71 74 74 73 73 76 76 76 79 78 79 79 81 84 88 88 90 94 93 96 96 102 101 100 102 103 106 106 109 107 109 111 112 112 111 113 115
73 73 73 72 71 71 72 74 75 79 81 81 82 84 87 88 89 90 88 91 92 92 93 100 98 96 102 103 103 103 104 106 106 107 109 111 114 116 116 116 116 118 118
78 79 78 78 77 77 79 81 83 85 86 87 89 92 94 95 96 97 97 96 98 99 99 98 104 104 103 104 104 106 106 108 109 111 114 114 118 120 121 123 122 120 120
83 83 84 86 87 87 89 91 92 94 94 98 99 98 98 99 101 99 102 103 102 102 100 102 104 105 108 108 108 109 110 112 114 115 117 118 121 123 124 125 121 121 122
92 93 93 94 96 98 98 96 100 102 104 105 106 106 105 105 106 105 107 107 106 103 105 107 108 110 110 112 112 114 116 116 118 119 121 122 125 125 124 123 123 124 125
103 104 106 107 105 105 106 105 107 108 109 111 110 110 111 114 113 114 113 107 108 109 111 112 115 115 116 116 117 119 120 121 123 124 123 124 124 124 123 125 126 125 127
101 96 99 99 100 98 103 106 107 109 108 113 109 106 104 109 111 109 111 111 110 112 117 119 119 120 121 121 123 124 125 125 124 123 122 123 123 122 124 123 125 125 125
93 87 97 102 104 97 98 101 99 98 105 106 106 106 106 109 114 113 113 116 118 119 120 121 122 121 122 122 120 119 121 122 120 121 122 120 121 121 121 121 121 120 117
93 96 101 102 99 101 97 97 96 98 104 108 106 105 108 108 109 118 123 122 122 123 125 123 122 123 120 116 118 117 116 117 118 117 117 116 116 118 116 116 113 112 107
85 88 91 90 90 92 90 91 94 96 97 103 108 110 113 114 115 119 121 124 126 126 125 123 119 116 118 115 113 114 115 115 115 114 114 114 113 111 109 107 102 97 94
84 86 90 91 91 95 97 99 100 101 104 105 109 112 113 117 120 122 123 120 119 118 118 117 113 111 111 111 111 112 113 112 112 111 109 107 105 102 98 94 92 89 85
83 86 88 91 92 96 99 102 104 107 109 111 113 115 117 119 119 115 117 116 110 109 109 108 107 107 107 109 110 109 108 107 105 104 101 96 93 90 88 85 83 79 75
73 78 82 86 90 95 98 99 102 105 107 109 112 114 112 111 111 107 105 106 105 104 103 104 106 108 107 104 104 102 100 98 95 92 88 86 84 82 79 76 73 70 68
74 75 77 81 84 87 90 92 95 97 98 98 98 99 99 98 99 99 98 98 99 101 103 102 100 101 100 98 96 93 91 88 85 83 81 78 77 74 71 69 67 64 61

GFSGL_250_spd_069.txt.gz
Wind_Speed
8 9 15 26 29 28 30 33 35 36 39 39 40 44 47 48 50 52 52 52 53 54 54 54 56 62 64 61 57 59 58 51 45 49 61 63 62 64 66 68 68 67 70
10 9 11 12 16 23 32 39 41 39 38 41 42 45 48 48 49 51 53 56 56 56 57 60 63 63 58 57 55 49 47 43 44 49 54 61 65 66 68 70 72 77 77
14 14 13 13 14 15 15 20 27 32 37 44 49 49 50 53 52 53 55 59 61 60 64 62 54 54 51 50 48 46 42 45 50 54 58 65 69 71 73 72 75 81 81
23 21 18 20 19 14 15 16 16 17 20 25 30 35 42 49 51 50 50 49 48 47 47 45 43 42 41 43 45 47 49 52 56 58 60 64 68 68 74 75 75 81 83
30 30 30 25 24 25 23 21 21 20 19 19 20 22 25 26 26 27 27 29 31 34 34 38 38 40 42 44 46 48 53 57 61 61 63 67 70 77 79 80 82 85 88
37 36 31 33 33 29 30 34 31 29 28 28 27 25 28 30 32 35 36 37 37 40 41 42 46 49 52 56 57 56 61 64 69 67 75 75 78 83 83 86 90 91 94
39 40 42 39 38 37 34 36 39 39 37 37 40 41 40 39 39 40 42 44 44 45 48 52 53 56 60 60 61 62 67 69 73 76 78 81 87 91 91 93 94 93 94
46 45 40 42 42 45 43 43 43 43 43 43 43 47 47 48 48 53 52 50 49 51 55 58 61 63 66 67 70 73 74 77 77 80 81 87 92 98 100 101 102 101 102
50 52 51 49 48 49 49 48 46 47 51 50 50 51 54 55 55 56 59 60 60 59 60 63 63 64 65 69 73 76 80 84 84 85 89 91 94 98 106 106 106 107 108
52 52 57 58 57 57 56 54 54 54 52 54 56 57 61 62 63 66 66 67 67 67 68 69 69 70 70 74 76 79 82 84 87 91 97 98 99 103 105 108 109 108 110
62 62 61 63 64 65 66 66 65 63 65 64 65 66 67 67 65 69 68 68 69 71 73 74 75 77 80 83 82 87 89 91 93 97 97 100 103 103 106 107 109 111 113
72 70 68 70 71 71 65 64 65 65 64 67 68 71 71 72 74 73 74 74 77 79 79 79 82 86 90 91 92 95 99 96 99 101 100 100 102 105 107 110 113 115 119
81 80 82 80 79 77 74 71 70 69 70 70 73 74 73 74 77 79 79 81 83 85 86 89 92 95 97 97 99 100 102 104 100 106 107 108 108 109 110 114 117 120 122
87 87 84 81 79 80 80 78 76 76 77 75 77 76 78 80 83 86 89 90 94 95 95 95 96 98 101 104 106 106 109 101 102 105 111 113 115 115 118 121 125 128 129
95 91 84 82 81 81 81 81 80 79 79 81 82 84 86 89 92 95 99 100 101 103 102 106 110 108 108 107 109 107 107 111 112 113 116 117 119 121 123 126 129 128 129
91 86 82 82 84 84 85 85 85 86 88 89 92 93 94 97 101 103 107 109 109 110 112 115 113 114 114 117 117 114 112 114 118 115 114 118 122 127 131 132 132 131 129
87 87 88 90 93 92 94 96 98 98 98 99 100 103 105 106 111 111 112 114 113 113 110 112 114 118 115 111 113 117 115 113 116 119 122 124 126 129 129 128 128 125 118
96 97 99 102 107 101 104 106 107 105 106 108 110 113 114 116 116 113 113 115 115 116 116 116 114 113 113 115 116 117 120 122 122 124 126 130 129 127 127 127 120 118 119
104 104 104 111 114 115 117 114 110 107 107 108 111 112 103 108 108 107 106 103 107 109 108 114 119 121 117 119 120 122 125 126 126 131 133 131 129 125 122 119 115 116 116
95 98 100 104 107 112 112 113 108 102 97 96 90 94 95 104 106 105 103 110 118 117 116 120 123 123 124 126 128 132 134 132 133 131 127 126 122 118 116 117 115 113 113
87 89 92 94 96 97 100 103 105 104 98 93 93 99 109 111 114 115 118 124 122 117 117 118 120 124 129 131 132 133 134 133 131 129 126 118 117 116 113 112 111 107 107
82 84 86 89 92 94 97 103 104 99 99 105 107 109 113 122 126 125 124 121 115 115 116 120 128 129 130 131 132 131 130 129 123 119 117 115 111 110 108 106 106 104 101
79 80 80 82 85 88 91 94 96 96 99 105 109 111 113 116 117 112 111 113 114 116 122 123 124 125 122 123 121 118 116 115 112 111 109 109 107 105 104 102 99 95 93
73 76 77 78 80 82 84 87 90 92 95 98 102 106 107 108 108 111 114 114 115 117 117 116 117 118 114 112 110 109 108 108 108 106 104 103 101 99 96 92 90 87 85
68 68 71 74 76 79 82 85 87 89 92 94 96 98 100 103 104 106 107 109 109 110 110 109 108 107 106 105 105 105 105 104 102 101 98 95 92 90 87 85 82 79 76
72 73 75 76 78 81 84 86 88 90 92 95 97 99 100 101 102 103 105 104 103 103 104 103 103 103 103 103 103 102 100 98 94 91 89 86 84 82 79 76 74 72 69

GFSGL_250_spd_072.txt.gz
Wind_Speed
9 10 8 9 17 22 23 24 28 31 31 34 38 41 40 40 38 40 40 44 46 46 48 48 52 57 58 58 60 61 63 65 66 62 57 59 55 54 50 51 54 55 55
15 9 9 8 10 12 16 22 28 34 36 35 36 39 45 46 44 48 51 54 54 55 55 58 58 62 65 63 64 64 62 62 54 50 46 47 48 50 52 56 58 62 63
19 19 15 10 9 10 11 16 17 18 21 26 34 41 45 47 47 50 52 54 56 58 57 57 59 62 62 63 58 54 50 46 41 45 49 49 52 51 56 58 62 67 70
24 24 24 23 22 21 17 15 14 14 15 16 17 20 23 28 33 39 42 46 51 54 52 43 40 40 38 38 38 40 44 45 49 51 57 58 61 63 64 66 66 70 79
29 30 29 27 27 26 26 24 22 22 22 23 26 25 22 22 24 26 28 27 27 30 33 35 35 37 39 39 42 46 48 51 55 59 62 62 67 67 74 74 77 80 83
38 40 39 36 36 36 33 29 30 33 34 33 33 33 30 31 32 36 35 34 35 35 36 40 42 44 47 49 53 55 57 57 59 61 63 61 67 71 75 81 83 86 88
43 42 44 44 46 41 39 41 39 39 40 40 40 39 39 40 43 45 45 44 44 43 45 48 46 48 53 56 57 59 60 63 64 67 67 68 70 73 78 83 87 88 92
48 49 47 47 45 47 46 43 42 42 44 44 43 43 47 49 49 49 48 50 50 53 53 53 55 57 62 63 65 66 69 70 69 73 75 75 77 79 82 85 91 94 96
52 53 53 53 54 55 50 53 54 52 50 52 56 53 49 50 52 56 57 58 58 57 59 59 59 61 63 66 69 70 73 74 75 79 82 81 83 87 89 92 96 98 100
63 62 61 61 59 59 59 60 58 54 55 57 62 63 63 64 64 67 68 68 68 67 67 66 68 69 68 71 73 73 77 79 83 84 84 86 92 96 99 98 100 101 106
64 62 61 61 61 62 64 63 65 66 65 64 66 67 69 74 74 73 73 75 76 76 75 75 75 77 78 77 78 82 86 89 89 90 94 99 100 101 101 105 108 109 110
68 66 69 71 69 69 71 69 70 70 70 73 74 75 76 76 77 76 78 80 82 82 82 82 82 83 82 83 85 88 92 95 99 101 102 101 101 107 111 112 116 112 107
80 76 74 77 79 78 78 76 79 78 78 79 82 85 78 79 79 80 80 81 82 81 84 86 87 90 90 91 93 96 99 101 103 106 110 112 111 113 116 114 110 104 104
81 82 83 84 87 88 87 88 90 90 91 90 89 82 77 77 73 80 76 80 83 83 85 89 92 95 99 101 104 105 108 112 114 117 120 122 115 105 110 110 107 107 110
89 90 91 91 92 93 93 95 97 99 101 98 89 88 88 85 82 80 81 94 89 91 93 96 100 105 108 111 112 115 119 121 116 109 106 107 111 114 111 117 117 117 119
102 102 103 104 106 106 107 107 103 98 94 92 91 87 83 83 90 87 90 96 100 103 105 107 111 113 115 118 119 112 113 111 107 108 109 114 116 119 122 125 124 127 123
103 99 103 103 105 109 108 105 100 90 86 105 95 95 92 93 104 102 103 104 107 111 114 115 120 122 117 121 120 111 107 107 111 116 118 116 123 123 126 130 131 129 132
107 111 107 105 106 107 107 104 105 104 101 103 104 106 108 106 108 112 112 114 118 119 122 125 123 113 106 105 106 114 116 116 120 119 120 121 128 127 130 132 134 135 138
109 109 108 107 106 106 105 102 106 106 111 108 111 112 114 118 118 118 120 123 125 121 115 108 104 102 106 111 114 116 117 118 120 122 126 127 133 138 139 138 135 132 131
104 104 102 99 97 98 98 97 99 106 113 112 118 122 123 125 125 126 122 118 116 113 108 108 110 110 112 116 118 121 125 126 128 131 136 137 142 142 137 133 129 119 117
100 99 97 96 93 92 91 92 93 94 101 103 107 111 113 115 116 116 116 115 113 112 112 113 116 118 118 121 125 128 130 132 134 137 139 137 134 131 126 119 114 112 109
97 99 95 92 88 84 85 86 87 92 96 97 99 102 105 109 111 114 115 114 116 117 120 119 123 126 126 127 128 130 135 138 136 134 127 121 117 113 111 109 108 107 106
90 89 83 81 78 74 74 77 80 86 89 92 94 95 99 103 108 109 112 115 118 121 122 124 125 125 127 130 132 131 128 127 124 118 116 111 109 109 106 106 105 103 101
85 82 77 75 72 72 74 76 78 81 83 84 87 90 94 97 100 103 105 108 112 116 118 119 116 117 117 117 116 117 117 114 111 108 108 107 106 105 104 102 99 94 92
78 78 76 74 72 72 74 76 78 81 84 86 88 89 91 93 95 97 99 101 102 104 107 108 109 111 112 111 108 107 107 107 106 106 105 103 102 99 95 93 91 87 84
74 74 75 75 76 78 79 79 80 82 83 85 86 88 90 93 96 99 101 102 104 105 106 106 106 105 105 105 104 104 103 103 102 101 98 95 92 89 86 84 82 78 74

GFSGL_250_spd_075.txt.gz
Wind_Speed
12 11 8 9 11 21 32 42 51 57 58 53 57 62 63 62 62 63 63 57 53 52 52 52 55 53 51 51 53 53 57 58 55 60 59 61 60 53 45 42 43 47 50
14 16 14 11 8 10 13 16 21 27 34 39 41 43 41 41 43 45 46 47 49 48 48 49 51 52 54 55 54 58 59 62 62 63 55 50 44 43 43 45 51 57 62
19 20 18 20 15 15 13 12 12 16 19 19 22 27 32 36 41 46 48 52 56 56 57 58 58 58 60 61 63 63 62 59 47 41 39 41 42 49 51 54 57 62 67
28 32 25 22 25 25 23 22 22 20 19 19 19 19 20 22 26 28 30 35 38 42 46 50 51 51 50 50 46 46 45 44 43 41 44 47 46 51 56 58 61 62 67
31 32 32 30 27 29 29 29 30 31 30 28 26 26 30 30 30 29 29 27 26 28 31 34 36 38 39 41 43 47 47 46 47 51 53 55 55 57 60 63 64 68 72
39 39 37 38 39 40 40 40 39 38 39 40 41 39 37 38 38 38 38 37 39 41 42 43 43 44 47 49 51 52 52 54 55 59 61 61 61 63 69 72 71 74 78
40 37 38 41 42 42 43 44 45 46 46 46 46 48 49 48 48 47 46 46 48 49 50 52 51 53 55 57 60 60 59 60 61 65 67 68 68 69 70 74 80 80 83
50 46 42 43 45 46 47 48 48 48 49 48 50 50 50 53 52 54 55 53 51 52 56 60 60 62 63 66 68 68 70 71 70 71 73 74 74 75 76 80 83 86 88
51 49 47 48 48 50 54 55 55 56 55 55 56 54 52 56 59 62 60 60 61 61 60 63 67 70 71 73 75 76 78 78 80 82 83 81 81 82 83 84 89 93 95
54 54 53 54 54 55 58 62 63 60 61 60 59 58 54 57 66 65 66 67 64 65 68 70 76 73 74 77 80 82 84 86 86 85 86 87 88 86 88 90 92 96 101
61 63 62 59 60 59 62 65 64 62 66 64 66 66 69 64 63 67 72 73 74 74 75 77 80 79 79 80 82 86 88 87 85 86 87 88 90 92 94 96 99 102 106
70 68 64 61 58 57 60 66 72 73 74 71 72 76 72 74 70 72 74 77 81 84 88 83 75 80 83 83 83 89 83 89 92 94 95 95 96 99 102 106 108 112 116
70 68 69 72 74 75 75 77 76 74 73 74 75 78 79 79 74 77 80 86 91 96 92 81 80 77 80 87 82 75 70 90 97 103 101 108 111 113 116 119 122 122 123
77 80 80 81 82 82 81 82 77 76 78 82 84 85 88 90 91 92 95 99 100 81 78 85 80 74 65 85 93 82 87 102 107 110 113 115 119 121 123 124 127 124 118
87 87 85 84 84 84 84 83 84 87 89 91 96 98 101 100 102 103 105 103 92 96 96 86 80 75 79 92 105 107 111 113 117 119 119 122 126 127 130 130 121 116 114
91 91 96 95 95 97 99 100 101 101 104 107 108 101 100 99 99 102 98 99 97 92 84 86 95 92 92 107 103 106 110 120 125 126 128 130 129 136 133 125 118 118 118
99 99 101 103 106 106 106 105 107 110 107 104 104 103 102 102 106 103 99 102 102 101 101 109 103 104 105 102 108 122 126 128 129 130 133 136 135 125 119 116 118 121 124
107 108 111 112 112 110 110 110 111 113 112 113 112 112 110 108 106 108 105 108 109 116 116 118 113 110 113 118 123 128 131 132 136 135 132 128 125 120 119 118 120 123 123
116 116 118 116 115 113 114 115 114 113 113 112 109 108 108 109 108 109 115 117 114 118 119 121 130 125 122 123 124 125 127 128 128 126 123 122 123 123 121 119 122 124 126
116 116 116 118 115 115 113 110 107 106 105 103 102 102 101 100 102 103 105 105 108 112 115 115 118 118 118 118 118 119 123 124 125 124 124 125 123 123 123 124 127 130 130
113 111 109 106 105 104 104 103 102 103 102 102 99 98 96 97 99 100 100 103 105 107 107 110 112 114 116 116 119 123 123 123 124 124 124 125 124 124 124 123 121 122 124
105 104 101 101 99 98 98 97 99 97 96 94 91 88 87 87 89 93 96 98 99 101 106 111 114 115 115 118 119 122 122 121 120 119 118 119 120 118 116 116 115 115 116
94 93 92 92 90 90 90 89 90 90 86 83 81 79 78 79 82 86 88 92 95 97 101 104 108 108 112 113 110 109 109 111 114 115 114 114 112 111 111 111 110 109 108
84 82 81 80 80 79 80 80 81 83 83 81 80 80 80 81 83 86 87 90 94 97 99 98 98 98 101 103 104 105 105 107 108 107 107 107 107 107 106 105 104 102 100
76 76 75 75 75 74 74 73 74 75 77 78 78 80 80 82 86 86 87 90 92 94 96 97 99 100 101 101 101 102 102 103 104 105 105 105 104 103 102 99 95 93 91
74 73 73 74 74 73 73 72 73 73 73 74 75 76 77 78 81 82 83 85 86 89 91 93 94 95 97 97 97 98 99 100 100 100 100 98 95 92 90 88 85 82 80

GFSGL_250_spd_078.txt.gz
Wind_Speed
10 12 12 12 12 12 24 44 60 55 52 59 63 62 64 66 67 70 70 72 73 73 74 74 73 70 62 62 60 57 57 54 48 55 55 57 59 60 59 56 51 47 43
16 12 10 16 19 17 16 16 21 29 37 45 48 50 53 56 58 58 57 57 56 57 57 55 56 56 56 56 53 54 55 55 53 53 61 59 55 51 49 45 45 45 47
18 19 15 15 16 19 20 20 19 20 23 25 27 30 33 37 41 45 48 50 51 51 52 54 57 57 58 59 60 63 61 61 58 56 45 45 43 43 46 48 50 52 54
28 27 27 22 22 24 23 25 24 25 25 26 27 29 32 33 33 31 31 31 33 36 38 41 42 41 42 42 41 41 41 40 40 38 40 44 46 48 56 60 59 63 64
30 30 28 28 28 28 28 29 27 28 29 31 32 33 34 37 39 38 39 38 37 36 35 36 36 38 43 44 43 44 45 45 47 49 50 51 54 55 59 65 67 71 70
39 36 35 31 31 33 33 34 35 37 38 39 41 42 42 44 45 46 46 46 47 47 47 47 49 50 53 54 54 52 54 55 58 62 63 63 64 66 68 73 75 77 78
42 43 42 41 40 38 36 39 40 42 43 44 43 44 46 46 46 48 49 50 52 53 53 54 53 55 58 59 59 59 60 60 62 67 70 72 72 75 76 75 80 81 83
46 46 46 46 47 46 46 45 46 45 46 48 52 52 51 53 53 54 54 53 51 53 53 55 59 61 62 62 62 61 64 63 71 71 71 72 76 77 81 81 81 83 82
52 52 52 51 51 51 52 52 52 50 52 55 56 57 56 60 59 61 58 57 54 56 56 62 56 58 63 67 69 69 70 72 77 77 77 78 79 80 83 85 85 89 87
56 58 57 56 55 55 54 55 55 55 57 61 61 63 63 64 62 57 63 67 64 65 68 66 63 64 69 72 76 78 77 81 83 82 77 81 85 88 90 95 95 82 90
57 59 61 61 59 57 56 57 59 62 62 62 66 68 67 65 65 68 72 73 72 67 68 69 72 72 76 78 81 84 89 91 92 81 77 80 85 86 86 76 72 92 99
56 57 58 60 62 62 64 65 68 66 64 64 67 67 65 74 77 78 81 75 71 74 76 78 77 73 80 89 95 90 87 93 85 78 80 84 84 87 82 87 94 105 111
63 63 63 65 66 67 68 68 66 67 69 72 74 78 78 79 79 80 74 74 76 73 76 81 76 85 98 90 91 84 94 90 92 87 93 85 93 95 86 95 106 109 114
67 68 70 70 70 69 70 72 74 79 82 83 84 81 83 84 81 79 76 80 83 87 92 96 101 103 105 105 104 101 103 106 101 101 106 105 90 93 95 107 115 118 122
72 73 73 75 75 77 82 84 85 86 87 88 87 89 92 93 93 93 95 99 102 103 105 108 108 105 101 101 101 102 104 106 102 104 109 106 101 95 107 118 123 127 129
79 82 83 83 85 89 91 91 93 94 95 97 100 98 99 101 102 103 106 104 103 103 105 106 105 107 106 108 109 108 108 103 105 100 106 104 108 106 113 117 122 124 129
90 92 93 94 94 94 95 97 98 102 104 106 106 108 111 113 115 114 113 107 107 108 111 111 110 111 111 113 115 115 115 114 112 109 109 114 114 120 134 132 127 127 126
95 93 95 98 98 99 103 105 107 110 112 112 115 118 120 116 113 113 113 112 116 119 117 116 114 116 117 119 119 120 122 121 119 120 124 127 129 134 136 136 134 134 134
101 102 102 104 106 108 111 114 115 118 119 120 120 118 117 116 115 117 119 119 115 111 109 109 109 108 108 108 110 113 114 115 115 118 120 123 126 127 132 131 132 127 125
109 112 112 113 114 116 118 119 120 122 119 115 115 115 114 112 112 112 110 110 108 106 105 105 105 105 107 107 107 109 110 112 113 114 117 122 124 125 126 125 119 114 110
111 112 114 117 118 119 120 117 112 111 109 107 104 103 103 102 101 101 102 102 102 100 97 96 95 97 100 101 103 105 107 109 111 113 115 118 120 120 116 108 105 107 107
115 117 119 118 112 109 108 106 104 101 98 94 92 90 89 89 87 88 91 93 91 89 87 86 87 88 92 94 96 97 97 100 103 103 104 104 103 103 102 103 104 105 109
111 109 109 107 104 101 97 95 93 92 90 87 86 84 82 80 78 79 80 81 80 82 85 86 87 88 90 92 94 95 96 97 97 97 98 99 100 101 102 102 104 105 104
103 102 100 97 94 92 90 87 85 83 82 80 78 78 77 75 75 76 77 77 76 76 77 80 82 83 86 89 92 94 96 97 98 98 98 99 100 100 101 102 101 100 98
93 93 92 90 86 85 83 81 79 77 77 77 76 76 75 74 74 74 74 74 73 73 74 76 77 79 81 83 86 88 90 91 93 95 97 98 97 96 97 97 96 93 91
84 82 81 81 80 78 77 76 75 75 76 76 75 75 75 75 74 74 74 73 73 74 75 76 77 79 80 82 83 84 86 88 89 91 92 92 92 90 88 87 85 84 83

GFSGL_250_spd_081.txt.gz
Wind_Speed
14 9 9 6 6 6 11 29 48 55 56 56 54 54 54 56 58 58 61 63 64 64 68 69 71 74 76 77 75 72 67 59 57 57 57 57 57 57 58 59 60 62 60
20 19 13 12 8 9 9 10 10 17 38 55 53 52 51 51 55 58 60 63 64 68 68 64 63 61 58 59 58 56 56 56 54 52 58 59 60 60 58 59 56 50 47
22 19 22 18 14 13 14 15 15 15 15 16 18 22 24 28 30 31 32 36 40 42 42 42 45 46 49 49 50 53 55 55 50 44 42 46 45 46 45 47 52 52 53
30 25 22 23 24 20 24 23 22 21 23 24 24 25 25 26 27 28 29 31 33 34 35 37 39 40 41 41 40 39 37 40 39 38 38 42 44 48 49 55 59 62 64
29 27 28 29 29 27 24 26 27 28 28 28 29 29 31 35 36 36 36 37 39 40 41 44 44 44 44 46 47 49 51 50 50 49 47 48 51 54 54 55 56 61 64
36 35 34 33 32 31 31 31 31 31 31 34 37 38 39 39 39 40 36 39 40 39 42 44 46 48 51 52 50 51 54 54 56 58 57 55 55 57 59 61 64 71 71
36 37 37 40 39 39 37 39 39 37 39 38 41 43 43 45 45 42 46 46 46 46 47 49 50 50 50 50 52 54 57 58 56 58 54 59 59 64 67 67 68 75 79
44 44 42 43 44 45 45 45 45 45 44 46 47 47 47 50 45 48 48 50 51 53 55 56 53 53 51 59 60 62 66 66 63 60 62 63 65 67 74 77 81 85 81
48 49 49 49 49 50 50 50 51 50 50 53 54 54 55 55 52 54 58 56 57 59 62 63 57 57 64 70 67 68 72 73 73 75 72 71 75 73 81 86 91 97 92
53 53 54 55 54 54 56 57 57 57 56 56 58 59 58 58 59 62 63 61 59 60 65 65 62 63 72 72 72 72 71 70 75 74 76 79 79 84 89 95 96 102 97
53 54 56 57 58 59 61 62 63 63 61 61 63 62 64 65 64 67 66 65 65 65 67 68 73 73 76 73 71 69 72 72 75 80 78 79 83 91 92 95 92 100 101
58 59 61 61 61 63 65 65 64 64 63 64 67 67 69 71 71 71 67 68 72 74 78 78 78 75 77 82 78 72 65 80 77 85 91 94 93 98 90 94 103 106 100
64 64 64 66 67 65 63 64 65 67 69 70 72 75 75 76 73 73 74 80 79 79 82 81 81 81 87 82 94 92 83 89 92 98 105 101 102 103 105 108 108 110 113
65 62 64 63 65 68 68 70 71 73 74 74 74 77 75 78 78 80 86 86 84 86 88 89 91 93 91 92 97 99 98 104 102 106 111 107 106 108 108 110 112 113 118
72 71 71 73 75 74 76 78 77 78 79 80 82 82 85 84 87 90 90 90 94 96 96 97 99 101 103 104 106 108 109 110 113 111 109 110 112 113 113 113 115 118 119
75 77 78 80 81 82 83 86 87 87 87 87 89 90 92 92 92 94 96 98 99 101 104 105 107 110 111 114 118 119 115 113 113 113 115 117 115 117 121 126 125 126 127
84 86 83 84 83 83 85 87 89 92 94 97 99 100 96 97 98 101 104 106 110 112 116 118 119 120 121 122 119 116 115 116 116 118 122 124 124 131 132 129 128 129 132
91 88 86 87 88 91 92 94 97 100 102 103 105 104 107 107 109 110 113 117 119 121 123 125 124 125 125 120 119 120 121 122 123 126 129 130 127 126 123 123 124 124 125
93 92 92 93 97 100 102 105 107 109 107 111 111 111 111 113 114 116 119 121 125 125 123 120 118 119 120 120 119 119 119 119 119 119 120 120 118 116 116 117 117 118 120
96 97 100 103 106 108 110 113 112 114 111 112 112 111 113 116 119 121 122 119 116 115 114 112 112 112 110 110 110 110 109 108 108 108 107 106 107 106 106 106 107 109 111
107 108 109 111 112 113 108 111 118 120 124 120 116 114 113 114 112 111 111 108 105 101 100 97 96 95 95 95 98 100 99 98 99 100 100 100 100 100 100 100 100 100 100
117 117 117 115 120 117 116 120 123 116 115 113 112 110 108 106 102 98 96 95 92 92 91 89 88 87 86 87 88 89 90 90 92 93 94 96 98 98 98 98 99 100 99
122 122 124 119 123 122 118 114 112 110 110 109 106 104 101 98 96 91 89 89 87 87 86 85 85 84 83 84 84 84 85 85 86 88 89 89 90 92 93 94 95 96 96
109 110 110 110 109 109 108 107 106 105 102 101 99 98 94 90 89 88 87 85 84 84 83 83 83 83 82 81 81 82 82 82 83 84 85 86 86 87 88 89 89 89 89
100 101 102 102 101 101 100 99 98 97 95 92 88 87 87 86 86 86 86 86 85 84 83 83 82 81 80 79 79 79 79 79 79 80 80 81 82 83 84 85 84 84 83
96 95 95 95 95 94 93 90 87 86 86 86 85 85 85 85 85 85 85 84 84 83 82 81 80 80 81 81 82 82 82 81 80 80 80 79 79 79 79 78 78 77 76

GFSGL_250_spd_084.txt.gz
Wind_Speed
13 11 8 8 8 14 24 43 46 45 42 38 40 41 41 43 45 46 46 49 52 55 57 60 62 64 64 66 69 70 70 71 66 62 58 56 56 56 59 59 58 58 58
20 20 16 11 12 10 11 14 21 33 47 56 54 52 51 52 51 54 56 56 59 60 63 63 66 67 66 63 62 52 44 44 40 40 50 53 50 51 44 42 40 42 41
22 21 21 22 18 17 11 13 13 12 14 16 21 31 41 47 51 54 59 59 58 49 39 34 34 31 32 32 33 35 35 37 35 33 36 39 42 44 46 46 48 48 48
30 27 24 22 21 22 18 17 18 19 18 18 18 20 23 24 25 26 26 27 27 28 29 32 35 36 38 39 40 40 41 41 41 41 41 47 50 51 50 54 54 55 56
33 31 30 28 22 23 25 26 26 22 22 22 25 26 27 28 27 27 30 32 34 35 35 36 37 40 40 40 40 42 43 44 44 45 46 48 50 54 57 60 58 60 60
38 38 36 32 30 29 31 32 30 28 27 29 28 27 29 32 33 35 37 39 40 41 42 43 45 45 46 45 46 47 49 49 48 47 47 50 54 58 60 61 63 62 62
41 40 39 36 36 36 37 38 37 36 38 36 36 37 37 36 38 41 41 42 43 44 44 46 47 50 54 55 56 55 58 58 52 51 54 57 60 64 67 69 69 71 71
42 42 40 38 37 37 38 40 43 43 44 44 44 44 45 43 46 47 47 47 48 50 52 53 52 55 56 59 61 62 66 65 63 62 64 69 71 67 74 76 75 77 76
46 45 45 45 44 45 46 46 48 49 50 53 52 51 51 49 52 53 55 55 54 55 55 58 61 60 61 62 61 61 67 69 67 70 74 71 69 70 75 74 76 83 79
48 50 51 52 52 53 53 54 54 55 56 57 57 58 58 58 57 58 59 59 60 61 62 63 63 66 68 63 63 67 69 69 73 79 80 79 79 79 73 76 80 79 84
58 56 57 56 56 57 58 59 61 61 63 63 64 63 64 65 65 65 64 66 67 68 68 68 69 72 75 71 69 73 77 77 78 83 85 90 87 83 91 96 96 89 90
56 56 57 57 57 58 59 62 63 65 66 67 68 68 69 70 70 69 68 69 71 73 73 76 78 78 77 77 79 82 83 84 85 87 86 90 93 96 95 94 94 96 100
60 61 62 63 64 66 67 67 67 68 68 69 72 72 71 70 70 70 72 74 77 79 81 81 80 80 83 85 87 90 91 91 93 96 97 97 99 102 103 102 104 107 111
66 67 67 67 67 69 70 70 71 73 72 71 71 71 73 75 76 79 80 82 84 85 87 87 88 89 92 95 95 94 93 97 101 103 103 105 108 109 110 113 116 118 119
70 72 72 72 74 73 73 74 73 77 78 80 80 80 82 83 83 86 88 90 93 94 94 96 97 100 104 99 99 100 100 104 108 111 112 114 117 119 121 123 125 126 126
81 80 82 79 78 78 78 80 81 79 81 83 87 91 91 93 95 94 94 93 95 98 100 101 106 107 108 110 109 108 109 111 114 117 120 124 126 127 131 134 134 132 130
84 84 83 84 85 85 86 87 88 88 90 90 93 94 98 96 96 98 99 101 102 103 105 113 112 113 111 112 117 119 120 122 122 123 127 128 128 125 126 124 123 123 126
90 89 89 90 91 92 94 95 96 96 99 99 98 99 96 97 100 102 106 107 110 113 116 113 118 119 122 120 118 119 121 121 121 122 123 123 123 123 123 123 122 123 121
97 100 101 101 100 102 101 102 102 104 105 104 105 106 106 107 107 110 113 117 118 118 118 119 122 119 114 118 120 119 120 120 118 116 113 112 112 113 112 111 111 111 113
103 106 109 110 107 107 107 107 109 112 110 111 111 115 115 117 119 119 119 111 118 118 120 121 117 117 117 118 116 112 111 108 107 104 101 100 99 100 101 101 101 101 100
111 108 105 106 110 114 116 115 113 111 117 119 120 117 118 120 121 117 113 113 115 116 115 117 117 115 113 109 106 104 100 99 100 98 96 96 96 96 96 96 96 95 95
113 114 113 111 113 115 116 117 120 123 120 115 117 112 110 110 112 113 115 116 117 116 115 112 109 106 105 102 98 97 97 97 97 96 95 94 93 94 94 94 93 92 91
116 117 119 120 121 122 122 119 116 115 115 114 114 115 116 117 116 116 115 114 112 109 108 105 103 100 98 97 97 96 95 94 93 92 91 90 88 86 85 85 84 84 84
121 121 120 120 118 117 116 115 115 116 117 117 117 116 115 114 113 111 108 105 103 101 99 98 98 97 95 93 92 90 89 87 86 85 84 84 83 83 82 82 82 82 82
113 113 112 112 113 114 115 115 114 113 113 113 111 110 108 105 103 102 100 98 96 96 95 94 93 91 89 88 87 87 86 85 84 83 82 81 80 80 79 79 77 77 76
105 106 106 107 107 107 107 107 107 106 104 101 100 99 98 97 96 95 94 93 92 90 89 89 88 87 85 84 82 81 79 78 77 75 74 74 73 73 73 73 72 72 72

GFSGL_250_spd_090.txt.gz
Wind_Speed
20 12 9 35 41 47 39 39 43 40 45 42 45 48 48 50 52 52 55 60 59 59 56 54 59 63 65 63 62 58 56 56 56 62 63 67 70 73 70 64 54 51 49
24 17 13 27 39 39 46 40 46 45 47 53 52 51 52 54 59 60 57 59 59 56 59 62 65 66 67 63 57 55 57 59 62 67 72 63 54 49 46 46 47 48 48
29 24 19 18 24 37 41 46 46 47 46 54 59 63 66 65 63 63 65 64 66 68 67 65 63 59 58 57 58 61 66 67 57 42 41 43 45 47 48 49 51 52 51
34 28 24 22 21 22 29 46 48 50 50 52 53 58 60 59 63 67 68 63 59 59 59 60 61 62 64 64 60 55 49 43 43 43 43 48 50 54 50 52 52 54 56
36 31 26 25 23 21 28 29 39 53 54 53 57 55 56 59 61 65 67 67 69 68 66 63 58 52 48 44 43 46 48 50 50 47 47 49 54 56 57 57 57 61 63
38 36 35 33 30 27 28 30 32 33 40 48 53 54 53 54 56 59 62 62 56 49 45 43 44 46 47 47 50 52 52 53 53 54 56 57 57 60 62 62 62 62 64
43 40 40 39 39 37 33 33 35 36 40 38 39 41 40 39 43 44 44 44 44 43 44 46 47 48 49 52 54 55 56 56 58 59 60 62 63 65 67 68 72 73 74
47 45 44 44 44 41 39 39 42 42 40 42 46 47 47 46 46 48 49 48 46 47 48 49 50 52 54 57 60 62 64 65 66 67 69 69 70 71 73 75 76 79 78
50 49 49 48 48 47 46 47 47 47 47 48 47 48 50 50 50 52 52 54 54 53 55 57 58 60 63 65 66 67 69 70 71 73 75 75 77 77 79 80 83 85 85
53 56 54 51 53 52 52 51 50 51 52 53 53 53 54 54 54 54 55 55 57 58 60 62 64 66 69 70 71 73 76 77 77 78 80 82 82 84 84 85 88 88 88
46 52 55 56 58 57 56 55 54 54 55 56 57 57 57 58 59 60 61 62 63 64 64 66 69 73 75 74 74 77 79 78 80 82 81 82 83 84 85 88 89 92 94
47 48 51 50 54 59 60 60 59 59 60 61 62 63 64 66 67 69 69 69 70 70 72 73 75 76 75 77 78 78 81 82 82 82 84 86 87 89 91 93 96 100 103
57 57 58 64 56 64 66 65 65 64 65 66 67 68 69 68 70 73 74 76 77 77 78 79 79 80 82 80 82 83 84 85 85 89 91 93 94 96 99 102 102 106 109
65 66 67 68 73 79 77 76 71 71 71 72 73 74 75 76 79 81 81 82 81 83 85 83 84 82 83 84 86 88 91 91 95 98 100 103 103 103 104 106 111 111 110
73 70 71 80 80 82 83 82 81 80 82 81 82 83 84 84 84 86 87 87 87 88 87 88 88 89 90 91 95 96 96 97 101 103 105 106 109 112 114 115 113 113 116
78 81 83 79 87 82 88 91 92 89 90 88 89 91 92 92 93 91 90 90 92 94 96 97 97 98 100 100 101 102 103 104 107 109 111 111 113 114 113 116 118 121 127
78 86 89 89 92 88 93 94 99 98 95 97 95 96 97 96 96 96 98 100 100 100 102 103 103 105 104 107 108 108 109 113 115 116 114 113 113 116 121 124 130 131 133
84 85 88 90 95 97 101 103 102 102 101 100 100 100 102 103 102 103 107 107 105 106 106 107 109 110 113 114 114 116 115 119 119 117 119 122 123 125 130 130 126 126 125
95 93 94 93 94 98 103 104 106 108 109 107 109 110 109 109 109 112 109 108 110 110 112 115 117 122 124 123 123 122 124 123 122 124 126 128 128 128 128 125 123 122 120
99 102 104 105 108 111 114 115 114 116 116 115 115 115 115 117 118 116 117 118 118 121 124 125 129 132 131 129 126 127 125 126 129 130 131 126 123 121 119 118 116 115 113
111 111 113 113 114 116 116 118 119 118 119 121 120 119 121 122 123 124 125 128 130 131 132 135 133 134 130 128 130 129 129 128 125 120 120 119 119 117 115 113 110 106 104
112 115 118 119 120 120 121 122 123 124 125 126 128 129 130 131 132 133 134 136 138 137 137 134 130 128 130 130 129 126 123 121 120 118 117 116 115 112 108 104 100 97 95
118 119 120 122 123 125 127 128 130 130 129 129 131 134 136 137 139 141 140 138 134 135 134 133 131 130 129 126 122 120 118 117 115 114 113 110 106 102 98 95 93 92 91
126 127 129 130 131 132 134 133 135 137 139 141 143 142 141 141 139 136 135 134 130 130 130 124 122 123 122 118 116 116 114 112 108 105 102 98 95 94 92 89 87 84 82
132 133 136 138 139 141 142 142 142 139 138 138 139 138 134 130 128 130 129 124 122 124 123 119 116 115 114 112 109 106 103 100 97 95 92 90 88 86 82 80 79 78 78
115 116 118 119 122 124 127 128 129 129 130 129 127 125 121 118 117 117 116 114 113 113 112 110 108 106 104 102 99 95 92 90 88 87 85 82 80 79 77 76 76 75 75

GFSGL_250_spd_093.txt.gz
Wind_Speed
33 30 31 29 37 42 40 40 38 35 29 38 33 31 31 41 37 34 42 41 47 50 51 53 54 57 59 63 63 63 66 69 66 70 65 66 61 59 60 64 69 75 74
35 31 29 30 34 45 45 38 39 38 37 39 31 35 34 39 45 45 49 48 49 54 58 58 60 63 66 67 67 69 71 67 65 64 59 60 61 66 69 73 76 63 54
37 32 25 27 27 46 46 39 39 40 39 41 41 37 40 42 48 51 51 49 54 56 58 67 70 69 70 68 66 67 69 67 60 58 65 67 71 75 78 60 54 56 57
39 34 28 24 25 43 44 45 41 42 40 41 42 44 46 51 50 51 52 54 59 58 60 61 63 65 67 71 71 65 63 64 66 68 72 71 62 58 55 56 57 58 59
42 36 29 28 26 33 37 50 45 44 49 50 47 50 52 53 56 57 60 62 64 64 63 65 68 70 72 72 71 71 70 72 74 69 54 51 55 57 59 61 62 64 66
46 41 33 30 29 32 31 36 43 52 56 55 55 53 54 55 61 67 66 67 69 71 74 77 79 76 74 79 76 74 71 58 53 52 54 56 58 62 65 66 67 68 70
47 43 38 35 33 34 33 28 34 37 47 60 59 60 57 60 58 60 64 69 73 78 79 79 75 68 63 60 59 60 60 59 56 56 58 60 63 67 69 72 74 75 76
52 47 44 41 39 39 38 35 33 35 36 38 43 54 63 66 64 65 70 68 63 60 59 58 57 58 59 58 57 56 56 57 59 63 64 66 69 70 73 76 78 80 82
55 51 49 48 46 44 43 42 42 42 42 42 43 44 47 50 51 52 54 54 55 54 56 58 60 61 61 60 59 62 65 66 68 70 71 72 74 77 78 78 81 82 83
58 56 53 50 49 49 49 48 47 48 49 49 50 49 50 54 56 58 61 61 62 61 61 61 63 65 66 69 69 68 68 68 70 73 77 80 80 79 80 84 85 85 86
62 59 57 54 53 54 54 54 55 55 54 54 54 55 56 58 59 60 62 64 65 66 67 67 66 67 67 69 72 71 73 75 77 79 81 82 83 83 86 85 86 89 91
63 62 61 58 56 61 59 55 58 60 57 57 59 60 63 64 64 65 66 66 68 69 70 69 70 72 74 75 77 79 81 83 85 86 88 89 89 88 89 89 91 93 96
57 60 62 62 61 61 56 54 51 61 65 66 67 67 69 70 70 69 70 71 71 72 74 75 77 80 82 84 84 85 86 88 92 91 90 92 94 93 93 95 98 102 105
53 62 61 61 55 59 63 62 64 67 66 70 72 71 69 71 73 76 78 79 79 79 78 81 83 84 86 88 89 90 92 94 94 96 98 99 100 100 104 105 106 109 113
62 57 63 54 62 68 71 72 69 70 72 74 77 78 81 83 83 82 83 84 83 84 86 87 89 90 92 92 94 96 99 100 100 102 105 107 106 109 110 109 111 115 119
61 66 64 69 77 76 78 81 77 75 77 78 82 86 86 86 91 92 93 95 94 93 93 95 97 99 100 101 105 107 106 107 108 111 115 114 112 114 115 118 120 125 129
71 69 90 90 85 85 85 87 85 79 81 80 82 89 94 94 94 95 101 101 100 100 101 101 104 107 109 109 108 110 113 114 113 118 116 117 119 119 124 127 130 136 138
75 82 87 90 88 89 90 92 92 89 84 86 89 88 91 97 104 108 112 111 110 106 106 107 107 110 112 114 115 117 120 120 123 124 123 124 127 128 131 137 136 133 131
86 88 94 93 92 90 90 92 94 97 105 97 101 104 110 104 108 114 117 121 121 121 120 119 118 118 120 124 127 124 123 127 131 132 132 131 134 137 137 138 137 135 133
94 96 96 95 96 98 100 101 105 105 108 110 115 119 119 120 121 121 123 125 128 126 128 128 127 129 133 133 130 131 133 134 135 136 137 140 141 146 140 138 135 133 127
102 102 105 108 108 106 108 108 112 111 114 116 114 115 117 122 125 126 127 128 130 132 134 136 136 138 138 136 137 140 140 140 143 145 145 145 144 138 136 130 128 122 122
114 116 116 115 115 115 115 115 116 117 119 122 123 125 128 129 130 131 132 135 137 139 140 141 146 144 143 143 143 144 144 147 147 147 142 131 133 134 130 125 122 118 115
120 120 121 122 124 125 126 126 126 127 129 131 133 134 135 136 137 138 139 141 143 144 147 147 144 144 147 151 151 148 149 147 136 131 137 137 128 122 119 117 114 110 107
124 125 128 130 131 133 135 137 139 139 139 140 140 141 142 143 143 145 147 148 147 145 144 145 147 149 146 145 147 141 137 144 134 126 124 121 120 116 110 107 102 99 96
113 115 117 120 121 123 125 127 130 132 135 137 137 139 140 139 138 139 140 141 142 142 142 141 144 142 136 137 139 131 125 123 121 118 113 110 106 102 99 97 93 91 89
111 114 118 121 123 124 125 127 129 130 131 133 134 136 137 136 133 130 130 130 133 132 130 132 135 131 124 122 122 118 113 110 107 103 101 98 96 93 91 89 88 86 84

GFSGL_250_spd_096.txt.gz
Wind_Speed
34 36 41 36 32 31 27 32 37 35 33 36 37 39 28 32 36 39 35 37 38 42 44 50 48 49 54 51 50 47 50 49 54 57 59 62 67 68 69 69 64 60 60
39 43 40 35 32 31 27 35 34 35 32 29 28 45 40 35 31 35 37 38 33 36 39 42 47 53 54 50 50 53 55 55 58 63 69 68 74 76 73 62 62 65 67
45 43 38 34 32 30 26 38 37 39 36 33 29 35 42 35 33 35 41 40 34 37 41 47 48 52 53 55 57 57 59 61 62 70 76 75 75 63 63 67 68 71 74
47 45 37 31 30 31 32 38 42 40 39 38 38 31 31 28 33 37 39 40 42 46 50 51 53 59 63 63 65 66 66 69 71 76 75 74 72 69 71 73 73 61 56
48 45 38 31 27 28 27 40 49 45 43 42 41 37 34 36 36 39 37 43 45 51 53 52 54 57 60 64 67 69 71 73 72 74 79 77 75 74 69 60 55 58 60
52 46 41 35 31 27 25 44 45 47 41 41 43 40 38 39 40 42 45 46 52 55 54 55 56 57 59 61 64 65 69 76 77 68 68 65 60 57 60 63 59 61 63
54 50 45 38 35 31 29 35 47 47 48 46 48 48 45 44 43 45 49 54 55 57 58 60 61 65 67 71 74 76 76 77 79 77 71 62 65 66 60 60 63 67 69
57 52 47 42 40 37 34 34 38 40 50 52 55 53 54 54 52 50 53 57 62 63 65 67 70 72 75 76 81 81 74 71 65 65 63 62 62 63 66 69 71 75 76
57 53 50 48 45 43 39 37 38 38 37 43 45 56 59 50 51 58 63 66 69 67 64 63 68 74 78 78 72 65 62 63 65 67 67 68 70 72 74 76 76 77 78
55 53 52 51 50 49 46 44 44 43 43 41 43 46 48 52 53 54 53 51 52 59 64 67 71 71 69 68 68 67 67 67 69 71 74 75 77 76 77 78 80 82 83
53 54 55 56 55 54 52 50 50 49 49 49 49 48 49 49 51 52 55 56 55 56 58 60 62 65 69 69 72 70 74 78 77 78 78 79 79 81 82 85 87 87 89
56 52 53 56 59 59 57 56 56 56 55 56 56 55 55 55 57 58 61 63 63 64 66 68 69 70 74 76 78 80 81 82 81 82 82 83 85 89 89 90 91 92 95
46 54 54 57 61 64 62 62 61 61 60 61 60 60 62 65 65 65 64 65 68 67 70 71 73 76 78 79 80 81 81 83 84 85 88 90 92 92 93 95 96 99 102
58 59 57 51 52 55 62 64 53 66 66 67 68 68 69 69 70 71 69 70 72 74 79 80 79 80 82 83 84 85 88 90 90 90 93 95 95 97 100 102 104 106 109
69 70 63 54 56 62 62 59 65 68 67 67 70 66 69 63 64 75 77 76 77 79 79 80 81 83 83 85 86 87 90 92 94 95 98 101 102 103 106 110 112 114 114
64 69 70 72 66 64 63 68 77 68 68 66 65 72 72 76 78 81 78 78 77 77 81 84 87 92 96 94 98 98 100 100 98 100 104 105 108 110 111 114 116 118 121
77 77 82 72 73 78 70 75 81 73 75 73 75 80 82 83 85 86 86 81 84 88 91 93 98 102 106 110 110 108 107 106 107 111 113 115 114 115 119 122 125 129 132
75 80 81 84 86 87 83 82 90 88 80 81 90 88 89 93 96 94 94 94 94 95 98 101 104 106 109 106 108 108 113 116 118 119 122 129 129 130 132 133 134 136 140
84 84 87 82 89 92 89 91 88 93 94 92 95 98 102 101 101 102 103 105 106 104 103 105 107 109 112 113 115 120 124 127 129 131 134 134 136 136 138 140 142 144 147
91 90 93 94 95 94 98 97 98 100 97 100 101 106 110 115 109 110 110 112 114 114 116 120 116 115 118 122 127 130 133 136 137 139 139 140 142 144 147 149 151 153 157
102 99 101 105 107 103 100 101 101 103 105 108 108 108 114 116 117 118 116 116 119 121 122 122 125 127 128 132 137 140 139 141 144 144 143 147 149 149 152 155 161 158 154
108 108 107 110 111 112 112 112 110 111 112 115 118 117 117 123 125 126 125 126 125 124 124 126 130 133 136 138 139 141 144 147 149 149 152 152 158 159 159 156 155 151 143
112 117 118 119 119 118 120 121 119 119 120 121 122 125 127 129 129 130 131 129 130 133 135 138 139 138 139 141 142 146 149 151 155 158 158 158 159 159 153 144 142 136 129
108 112 116 121 125 125 125 127 128 128 129 127 128 130 131 133 135 137 138 138 138 140 142 146 146 145 147 148 149 151 154 155 156 155 159 152 144 143 140 132 127 119 118
97 101 108 114 119 125 124 126 130 131 132 132 134 135 136 138 141 144 145 146 146 148 147 145 144 147 149 152 156 159 154 144 144 141 136 133 131 127 121 119 113 109 105
98 102 106 108 110 112 114 120 125 130 134 138 139 140 140 139 137 136 138 140 144 148 149 147 146 149 147 141 134 137 136 130 127 125 123 118 114 111 106 103 101 98 96

GFSGL_250_spd_099.txt.gz
Wind_Speed
62 67 68 55 40 37 36 33 39 34 33 35 37 36 35 35 30 26 29 35 33 27 36 43 52 51 51 48 51 51 46 52 46 46 49 47 48 52 52 55 61 62 64
65 67 48 36 36 36 34 36 33 29 32 38 33 37 36 39 33 31 28 33 32 28 33 42 41 49 50 49 48 45 51 49 50 51 47 51 55 56 57 62 63 65 65
60 49 38 36 38 36 35 36 32 26 36 36 34 37 39 38 36 31 37 35 37 35 33 33 36 43 47 52 49 52 49 49 52 53 53 56 60 60 64 66 68 65 68
55 46 38 37 41 38 38 37 30 29 38 39 36 37 38 35 41 34 32 33 35 34 37 37 38 39 41 48 51 51 52 54 53 57 60 62 64 66 71 71 71 69 75
58 45 38 43 43 40 38 38 32 31 41 39 40 38 40 40 48 47 42 40 38 39 41 37 38 43 49 49 49 49 49 55 60 65 68 67 71 71 73 72 73 76 64
46 39 41 47 44 37 36 35 31 31 43 49 41 41 38 35 36 41 40 35 37 36 43 45 49 49 51 52 54 58 60 61 63 65 68 72 73 72 75 75 69 66 71
40 41 51 50 46 37 33 32 32 32 51 50 48 50 45 43 43 37 35 35 35 40 44 46 50 48 53 58 61 59 61 64 65 66 67 71 74 79 79 82 74 66 70
41 49 55 53 49 41 36 32 30 32 48 55 55 46 48 44 42 44 40 40 41 41 44 50 52 55 55 59 63 63 63 64 68 71 75 78 83 81 73 68 68 70 70
44 57 60 57 53 47 42 38 36 32 42 43 53 51 45 46 46 45 44 45 46 47 50 51 54 56 59 62 65 68 72 74 76 78 81 80 76 69 68 68 70 72 74
45 60 63 57 51 48 47 44 42 41 37 42 44 44 60 56 54 54 52 55 55 56 58 62 63 64 67 68 70 72 72 77 79 80 76 73 71 73 73 74 75 77 78
47 62 63 57 55 53 52 50 49 46 45 45 45 46 47 51 64 55 60 62 64 67 69 70 71 73 74 75 74 73 73 74 73 71 72 74 76 76 79 81 81 81 81
46 59 62 58 58 57 57 55 53 52 51 49 49 50 51 50 50 53 56 56 55 53 55 58 60 61 63 65 67 68 69 71 72 75 78 81 82 82 82 83 84 86 87
49 54 50 49 60 62 60 59 58 57 56 56 56 56 55 56 55 55 56 58 59 61 63 64 64 66 68 70 73 74 74 76 78 79 81 82 82 84 85 87 89 89 90
56 57 65 61 56 59 60 61 63 61 62 62 62 63 63 63 63 63 65 66 68 68 68 72 72 73 74 73 73 75 75 76 80 81 86 89 90 89 87 89 91 95 98
50 53 57 59 56 55 63 61 63 63 63 64 67 69 69 68 69 71 71 71 73 75 77 77 79 79 79 80 78 79 82 84 85 86 87 89 90 94 98 102 103 102 108
63 63 59 65 66 68 67 68 68 74 73 68 68 65 65 68 71 70 71 73 74 74 75 76 75 77 81 84 86 87 87 91 90 90 94 98 100 98 104 111 112 114 109
68 73 72 72 70 74 70 74 80 83 74 70 71 68 64 70 74 75 75 75 75 72 74 80 84 85 89 94 93 93 95 98 101 103 103 107 110 110 114 119 118 117 118
75 79 77 75 76 82 83 82 83 90 81 75 78 80 72 76 81 89 86 82 84 83 82 89 93 92 94 97 101 103 101 104 108 109 113 115 118 120 122 122 123 124 129
83 85 86 87 86 88 91 91 93 93 91 90 90 88 84 83 87 89 91 91 89 92 92 95 101 101 103 107 109 107 110 113 115 117 117 120 122 126 128 129 133 134 133
93 95 96 96 99 97 97 98 96 96 94 100 98 97 96 97 96 98 100 100 102 98 101 99 106 109 112 114 117 122 123 122 122 124 126 129 130 131 131 134 136 137 139
99 100 104 107 107 106 105 106 106 104 103 102 105 106 104 106 107 105 107 109 111 108 111 114 113 114 118 121 122 123 126 129 128 129 131 132 133 136 139 141 140 142 146
98 103 106 109 113 117 116 115 114 113 113 112 114 115 116 117 117 118 120 119 119 119 120 124 125 125 127 127 128 128 127 132 134 136 137 139 143 146 146 145 146 148 152
92 100 109 114 114 119 124 125 125 125 123 125 126 124 124 123 122 124 124 126 129 128 128 127 129 132 134 135 136 136 138 143 145 145 145 148 149 150 149 150 154 157 160
84 90 96 105 115 117 120 122 124 125 124 125 125 128 129 130 133 133 131 134 134 133 136 136 139 138 140 143 143 146 147 149 150 150 151 153 154 153 156 159 158 154 152
82 86 88 90 94 100 107 113 116 118 121 124 128 128 130 131 134 135 139 141 142 143 144 143 140 139 142 144 144 141 139 139 143 147 149 152 153 153 152 147 144 141 137
79 81 84 88 92 94 97 99 102 105 108 110 112 114 118 121 123 126 128 129 133 134 135 135 136 141 141 141 141 143 145 145 145 143 139 142 145 141 133 128 126 123 119

GFSGL_250_spd_102.txt.gz
Wind_Speed
55 55 53 55 58 58 57 61 63 49 36 35 34 36 39 36 34 31 32 34 42 48 51 49 48 47 51 50 48 46 50 54 56 52 52 48 38 39 44 43 45 47 48
53 51 48 54 58 57 59 59 49 43 35 35 36 38 37 35 37 34 32 34 36 41 48 50 41 44 43 51 53 48 50 51 47 50 53 52 44 47 49 49 50 52 54
46 47 50 57 60 58 55 48 46 37 35 34 36 35 34 38 37 34 32 30 27 36 36 32 33 37 39 50 54 54 51 50 49 47 50 47 48 53 53 53 55 56 57
51 53 55 59 65 64 48 47 42 36 35 37 34 33 38 37 37 40 39 35 32 34 38 36 33 35 38 42 46 52 56 57 58 53 49 51 53 54 56 58 61 63 64
52 55 62 65 62 66 44 48 42 40 39 37 33 38 34 37 40 39 42 35 34 33 32 40 41 39 42 37 42 50 52 53 56 51 53 56 57 58 60 62 65 68 68
58 60 65 64 65 52 47 43 42 42 40 39 36 41 40 37 41 43 43 42 41 40 40 40 40 39 40 42 46 49 51 49 48 54 56 58 58 58 61 66 70 70 70
63 64 65 64 60 50 43 43 44 42 45 38 37 44 44 42 42 47 47 50 48 48 45 42 45 44 45 46 47 50 49 52 52 53 58 59 61 64 67 69 67 69 72
63 62 65 66 58 44 43 47 45 44 43 41 39 47 46 44 46 45 51 52 47 47 48 45 43 47 50 51 54 55 54 55 58 60 60 64 67 68 70 68 70 75 77
64 64 66 52 48 46 46 50 46 44 44 36 37 53 45 53 50 46 47 45 45 47 47 43 44 48 50 52 54 56 57 59 59 62 64 66 69 71 72 75 78 79 82
68 56 53 53 49 49 50 54 50 48 42 39 34 48 54 50 54 56 55 51 51 54 52 50 50 52 53 55 54 56 57 61 61 63 66 69 72 75 78 79 81 83 80
55 56 54 53 49 51 54 59 53 53 49 45 43 44 49 53 46 50 55 57 54 53 54 56 57 57 57 58 59 61 63 65 68 70 72 74 77 80 85 88 86 80 76
56 50 52 52 49 54 55 60 56 57 56 52 49 46 50 49 58 58 50 56 58 59 60 62 63 66 67 67 67 68 71 72 73 77 82 86 87 85 82 79 79 81 84
52 50 48 42 47 53 57 60 63 62 61 60 56 54 53 53 54 54 59 58 57 65 69 71 72 74 74 76 80 82 81 80 79 77 76 76 78 80 81 83 82 80 83
49 53 56 48 41 44 63 63 64 66 64 64 64 62 60 61 60 60 60 61 60 60 61 62 63 64 66 67 69 72 73 74 75 77 77 79 80 81 82 84 84 86 88
50 53 54 56 57 55 64 73 70 69 69 70 70 69 67 66 66 67 67 68 67 68 70 70 70 71 72 73 74 75 76 79 80 80 83 85 83 84 87 89 91 91 92
50 52 58 58 64 66 66 71 74 75 76 75 75 75 74 73 73 73 73 75 75 75 75 76 76 77 78 80 81 82 84 85 86 86 88 86 87 91 94 95 95 95 97
52 56 66 68 66 70 73 76 78 76 81 81 81 80 82 82 81 80 80 83 85 85 85 86 85 85 85 87 88 89 87 87 88 89 92 94 94 96 98 99 101 104 104
60 65 75 78 79 76 79 81 81 81 80 81 82 85 87 86 85 86 84 83 83 86 88 91 93 94 91 90 91 90 90 90 89 90 92 97 100 101 105 108 108 110 112
68 77 78 82 82 82 84 85 90 89 91 91 87 90 90 89 91 89 92 95 96 93 92 93 91 92 93 92 94 94 97 100 99 99 102 104 105 110 111 112 115 118 119
74 84 88 89 90 91 91 92 94 95 95 100 97 95 94 100 95 98 102 103 105 105 99 98 95 95 99 101 99 103 105 107 107 110 109 109 112 115 117 120 122 124 128
81 84 92 94 97 100 100 102 103 104 104 103 105 108 108 106 108 108 107 107 109 110 111 113 111 108 105 104 106 108 109 114 115 118 119 116 119 124 127 129 130 134 137
82 83 90 95 100 107 107 106 111 113 114 114 114 114 117 118 117 118 117 116 116 116 116 116 117 116 116 116 117 120 120 122 122 122 124 126 129 131 132 136 138 140 142
77 81 85 90 98 103 114 114 113 115 120 119 123 123 125 124 124 123 123 123 125 126 126 127 125 125 125 124 127 129 128 127 128 130 133 135 137 140 143 144 143 144 147
74 77 81 84 88 94 100 107 119 118 118 121 124 127 129 131 130 131 132 131 131 133 134 134 134 134 134 133 134 135 137 138 138 139 140 143 145 147 148 149 147 152 155
71 74 77 81 84 89 95 98 100 103 112 117 118 119 123 126 129 130 132 134 136 136 137 137 137 139 138 138 139 140 143 145 146 144 144 147 148 151 154 152 153 145 145
73 74 75 76 77 81 85 90 94 98 101 103 106 109 112 115 115 115 118 125 127 128 130 134 139 139 140 142 145 146 144 141 140 140 138 140 144 146 143 140 137 134 135

GFSGL_250_spd_105.txt.gz
Wind_Speed
48 50 48 45 43 45 46 45 44 51 56 58 60 57 55 40 42 43 40 40 42 45 49 51 56 56 57 51 47 51 53 57 53 53 54 55 53 52 51 50 48 40 40
56 51 49 53 46 42 40 43 51 54 56 58 61 57 42 38 43 41 40 40 40 38 38 40 51 59 54 51 45 43 48 52 55 60 52 52 55 54 53 52 48 41 42
47 54 46 47 49 46 44 52 54 57 59 60 57 50 39 39 41 39 38 37 35 33 33 33 40 56 57 54 54 51 51 52 55 54 52 49 53 53 52 51 51 52 46
52 53 50 48 50 47 48 53 57 59 60 61 61 45 40 38 36 38 37 39 35 36 36 39 41 44 50 53 56 55 53 54 58 56 52 52 52 49 52 52 52 52 50
51 50 50 50 52 55 58 60 62 62 59 59 54 42 41 36 34 35 42 40 39 36 35 35 42 44 45 44 44 46 48 49 52 57 58 55 57 55 53 58 60 56 52
55 59 53 53 53 56 57 60 63 65 65 59 56 47 45 37 35 40 43 43 42 39 35 35 38 41 45 44 44 43 43 49 54 55 58 61 60 62 63 60 59 56 59
57 64 58 57 60 63 64 67 69 67 59 56 52 51 47 41 37 45 45 45 47 46 40 42 41 41 46 47 46 48 50 51 48 54 57 58 58 60 58 61 59 62 62
58 59 60 61 62 63 62 66 68 66 62 53 49 52 50 44 41 49 48 48 47 53 52 46 46 45 42 45 49 48 49 53 51 51 55 56 60 61 61 63 67 66 65
57 58 61 63 64 64 66 67 66 67 61 46 50 52 53 46 46 52 52 49 48 54 54 56 53 52 52 50 51 55 53 58 61 58 58 60 61 60 64 67 67 71 70
59 61 64 65 66 66 68 68 67 67 50 48 52 51 51 48 48 56 55 53 49 49 59 60 63 60 58 59 57 57 59 62 64 64 64 65 65 67 68 68 70 70 71
62 63 65 67 69 69 67 66 64 53 46 52 54 54 47 49 49 59 57 55 51 54 55 56 62 61 66 65 64 62 62 63 64 66 67 65 68 69 70 71 72 72 75
64 67 67 66 67 71 69 64 63 54 51 55 57 55 50 51 52 60 60 55 57 59 59 61 59 60 62 63 63 62 65 66 66 66 68 69 70 71 73 74 76 78 79
66 69 71 72 68 68 65 68 67 55 54 56 62 62 56 54 51 54 58 61 60 63 66 66 67 69 68 65 66 67 70 70 70 70 71 72 73 73 76 78 78 81 86
68 67 68 68 70 71 69 68 68 60 66 61 67 68 65 63 62 59 60 63 62 66 68 71 74 74 71 69 70 71 73 76 77 79 80 80 81 79 81 85 90 92 90
65 64 67 69 69 69 67 67 61 57 63 65 73 74 73 71 70 68 67 68 69 68 68 70 71 75 78 79 79 80 82 83 84 85 85 87 89 92 92 91 88 87 88
67 70 72 68 67 63 63 64 65 65 72 69 75 77 79 79 78 78 76 76 75 75 74 73 74 74 75 74 75 78 82 85 88 89 89 89 89 88 89 91 91 92 94
65 68 68 66 62 61 60 65 67 67 69 72 79 83 83 85 86 86 85 84 84 83 82 81 80 80 81 81 82 84 86 87 88 90 92 91 92 93 94 95 97 100 102
67 69 67 64 66 67 65 66 70 73 81 82 85 88 90 90 92 94 95 94 93 92 92 92 92 91 91 90 91 92 92 93 94 96 98 99 100 102 104 104 105 108 111
71 72 70 68 70 73 74 71 76 76 86 90 91 95 97 98 100 103 103 104 102 102 100 100 99 100 100 100 100 100 101 102 103 104 104 105 106 107 111 113 114 114 113
74 74 75 76 75 78 81 80 81 84 90 96 97 98 100 106 107 109 111 111 110 109 109 108 108 108 107 108 109 109 111 112 110 110 110 110 110 113 115 116 116 119 118
74 77 79 81 82 82 85 89 89 91 96 99 104 107 109 109 111 114 116 117 116 118 117 117 117 118 118 117 116 116 117 118 117 117 119 118 118 118 118 118 117 118 117
71 73 76 79 82 84 86 89 94 96 99 104 106 108 110 111 113 115 117 118 121 121 122 124 124 125 125 126 126 126 127 128 128 128 128 127 126 126 125 124 125 128 128
73 75 76 77 79 81 85 87 90 93 99 103 103 105 109 112 116 117 119 121 122 123 124 126 126 126 126 126 126 127 127 126 128 127 127 125 125 124 125 127 130 131 134
71 72 74 76 78 80 82 84 87 90 94 97 100 102 104 105 108 109 113 119 124 126 129 130 130 132 131 129 129 131 132 132 132 133 133 130 131 131 132 133 136 141 143
71 72 73 73 74 77 79 81 83 87 90 93 95 97 100 101 102 105 108 111 116 120 122 122 122 123 128 133 135 136 137 138 138 138 139 139 136 136 137 138 140 140 140
67 67 68 70 72 74 75 77 79 80 82 84 88 91 93 94 96 99 101 104 106 107 113 119 123 124 124 125 126 130 133 135 136 136 138 140 141 143 142 141 141 142 142

GFSGL_250_spd_108.txt.gz
Wind_Speed
60 60 57 58 52 48 49 54 54 49 48 40 40 43 49 50 50 52 53 55 42 36 41 45 46 47 48 48 52 64 62 58 55 59 58 57 55 55 53 51 51 48 44
52 48 48 45 45 44 47 46 46 44 40 37 39 51 52 53 52 54 52 45 36 40 43 44 47 49 54 57 53 53 56 61 63 65 63 60 60 57 58 55 54 51 52
49 47 46 43 42 40 46 45 44 42 38 39 49 54 55 56 55 51 51 42 39 43 46 46 47 49 51 57 58 56 57 52 49 53 58 60 61 59 56 56 53 52 52
51 48 45 46 43 42 45 44 38 34 38 45 53 56 57 57 54 52 53 44 42 45 46 47 47 45 50 54 55 56 52 53 49 50 49 53 58 63 61 58 60 59 52
51 51 51 52 49 45 45 49 49 45 48 53 54 54 57 58 58 54 56 46 45 44 46 45 42 39 41 41 47 51 55 57 55 55 54 53 57 61 61 62 60 58 58
50 52 53 50 52 47 49 53 51 55 58 57 56 60 63 63 60 63 58 48 46 43 43 44 40 37 36 38 47 54 57 55 55 60 61 65 60 59 59 56 58 61 55
51 49 43 44 44 51 52 54 53 53 54 58 60 63 65 66 67 65 57 49 45 41 46 45 40 41 40 44 49 45 48 51 52 52 51 49 52 52 52 56 61 64 65
51 46 49 44 45 59 58 57 57 58 60 61 66 67 69 72 68 65 56 49 44 43 50 46 45 44 39 40 43 46 50 51 47 50 55 53 52 55 59 63 63 62 63
55 51 56 52 67 67 65 63 61 61 62 68 69 70 69 70 71 61 52 51 46 46 55 53 52 54 47 47 45 43 45 52 54 54 59 56 58 64 65 60 61 64 65
62 58 55 56 65 56 54 61 64 68 70 70 70 71 71 71 68 58 53 53 50 48 57 58 60 60 62 56 56 56 52 51 56 59 60 62 63 58 65 69 67 65 67
62 60 63 60 64 67 69 67 69 70 71 73 73 73 74 74 67 57 56 56 56 50 58 64 63 63 64 64 63 63 63 58 59 60 62 64 64 66 71 71 72 72 73
60 62 65 64 66 71 71 72 73 73 75 77 74 72 71 67 66 58 60 58 58 55 57 66 68 67 66 68 71 68 69 67 69 70 68 71 72 74 75 75 74 76 76
59 63 67 70 72 73 73 76 76 78 79 76 76 72 75 78 74 58 63 61 62 56 61 67 70 69 67 69 73 74 74 75 78 75 77 79 78 75 76 74 77 77 78
64 68 70 72 75 76 79 80 79 80 82 82 82 79 81 82 79 63 67 69 63 63 63 70 75 77 73 72 71 72 72 73 74 76 75 76 77 78 78 78 80 81 83
68 70 72 76 78 79 80 83 86 87 87 85 84 85 86 82 79 69 73 72 71 67 67 72 75 77 78 77 76 77 76 77 77 80 80 81 82 82 84 86 86 87 88
75 78 79 81 83 85 87 90 91 91 90 90 88 86 85 86 77 75 76 81 79 77 73 73 75 79 80 80 82 82 84 84 85 86 85 86 87 87 88 89 91 91 92
80 82 86 87 84 84 85 87 89 90 90 87 83 86 81 79 78 76 81 88 89 87 84 81 83 81 80 83 86 87 90 91 91 90 89 89 89 90 92 92 93 95 97
73 76 80 83 83 84 85 87 88 88 88 89 87 81 80 81 77 79 86 92 97 97 94 93 91 91 92 91 88 89 90 91 94 97 99 100 102 103 105 105 104 106 108
76 78 80 81 83 85 87 88 89 89 88 87 84 81 81 80 80 80 88 94 96 103 106 103 102 100 100 101 102 100 100 101 100 99 100 100 101 101 101 103 105 106 107
76 79 82 84 85 86 87 88 89 89 88 89 88 86 85 85 85 87 91 92 103 102 112 113 112 111 110 109 109 109 111 111 111 111 110 109 109 110 110 112 112 112 113
71 74 77 79 82 85 87 89 90 90 90 91 92 91 90 91 92 94 95 98 99 104 109 119 121 120 120 120 118 118 118 118 119 118 118 118 118 117 118 119 119 119 121
69 72 75 78 80 82 83 84 86 88 89 92 93 94 94 94 95 97 99 101 105 107 110 115 123 127 128 127 127 128 126 126 125 124 124 125 125 125 125 126 126 127 129
69 71 74 76 78 79 81 83 84 86 87 88 90 91 92 95 96 97 99 102 104 107 108 112 114 119 123 128 131 134 134 134 134 132 132 133 133 132 132 133 134 135 135
71 73 75 76 77 78 79 80 80 81 82 82 83 86 88 90 92 94 96 99 100 102 103 105 106 109 111 113 118 124 129 131 137 139 138 137 138 139 139 140 141 141 143
71 72 73 74 75 75 76 77 78 78 78 79 80 80 81 82 84 86 89 93 95 96 97 98 99 102 104 107 108 110 115 117 118 118 118 121 125 127 129 131 133 131 127
70 70 70 70 70 70 71 72 73 74 75 75 76 76 76 77 78 80 81 83 85 87 90 93 93 93 95 97 100 103 106 107 110 112 114 115 116 115 117 120 122 124 124

GFSGL_250_spd_111.txt.gz
Wind_Speed
43 43 46 54 54 51 57 64 54 49 50 52 51 50 51 49 48 47 40 43 45 48 50 51 52 41 39 48 48 53 55 59 62 62 62 61 57 56 54 54 51 50 51
38 47 46 49 50 52 56 58 53 50 47 51 52 55 54 52 47 44 43 46 50 50 52 47 47 37 41 46 49 48 57 55 60 63 59 58 55 55 54 54 55 53 53
36 44 41 40 45 46 49 53 50 47 47 48 49 52 56 54 52 45 44 50 52 50 49 48 43 38 42 47 50 50 49 51 55 57 60 62 62 59 56 58 60 57 59
36 42 47 40 40 44 50 48 41 43 45 47 50 48 46 49 46 41 48 55 54 54 50 47 45 41 43 46 52 53 52 54 57 56 59 62 64 61 63 61 63 61 64
38 42 45 44 46 49 49 44 46 51 49 51 52 56 56 50 44 47 51 54 57 54 53 51 53 44 48 50 50 55 55 60 64 64 59 65 70 68 63 64 58 61 61
30 46 48 46 48 45 45 48 52 50 50 51 55 54 55 53 49 54 58 58 57 56 58 53 54 48 48 49 51 52 54 55 57 60 63 62 66 61 57 60 60 58 56
49 48 50 46 42 43 42 48 48 49 49 54 55 55 53 55 57 58 60 60 59 61 60 59 54 51 50 49 51 50 46 46 46 48 59 59 62 58 57 59 59 63 62
46 50 52 43 40 40 38 47 51 52 54 57 52 59 58 57 58 61 60 62 62 65 64 60 55 52 51 49 49 46 44 45 44 48 49 53 57 62 61 65 61 65 65
46 48 47 49 48 45 42 50 51 58 60 59 60 59 58 59 59 61 62 66 66 69 68 61 55 53 51 49 49 51 50 47 51 53 54 55 58 64 66 65 62 63 63
45 47 48 49 56 60 60 54 64 66 63 65 64 61 61 64 66 67 67 71 73 74 71 63 51 55 51 51 55 56 55 53 52 53 56 53 57 58 55 58 67 71 68
47 50 50 53 56 57 63 71 66 68 66 66 68 70 69 69 70 72 74 76 76 77 75 66 57 55 56 57 60 61 59 59 58 56 56 58 62 61 64 65 71 74 75
53 54 57 57 58 59 62 69 73 73 68 69 70 71 70 72 73 75 78 82 82 80 75 72 54 58 59 60 65 69 68 68 66 63 63 64 68 67 70 71 75 78 79
58 65 60 64 65 64 66 69 71 74 75 76 75 77 77 79 81 82 81 85 84 83 81 75 62 56 68 62 69 74 76 76 75 74 72 72 73 75 77 78 79 84 82
58 59 71 75 73 72 74 74 75 80 82 82 83 84 87 89 87 86 87 85 90 87 85 82 72 63 70 73 70 77 80 80 82 82 79 77 77 79 80 81 83 81 81
63 66 67 71 76 78 78 82 83 84 86 88 89 90 91 92 93 92 93 94 93 90 90 91 84 78 72 79 77 78 84 86 87 87 87 86 84 82 84 84 85 87 89
67 69 75 77 78 78 83 84 85 88 90 93 94 96 98 98 98 100 100 97 99 98 97 95 92 86 73 83 84 81 86 90 91 92 93 95 96 95 93 91 89 91 92
73 78 78 79 85 87 89 90 90 92 93 95 98 101 103 104 105 105 106 105 104 103 102 102 97 86 79 84 91 90 89 95 96 95 96 96 95 98 100 99 96 94 95
75 78 82 85 88 90 92 94 96 99 100 101 104 106 108 109 110 111 111 111 112 110 108 102 95 89 83 88 96 98 97 96 101 103 101 102 101 102 101 100 100 101 100
75 77 80 83 85 90 94 98 102 106 108 109 110 113 114 114 114 117 115 113 110 106 100 96 96 93 87 88 96 105 105 104 103 105 108 107 107 107 107 108 107 105 106
70 74 78 81 83 85 88 91 93 95 97 100 104 106 108 109 109 107 106 105 105 102 101 98 96 94 90 89 93 101 110 111 111 109 110 113 113 113 113 114 114 114 113
65 69 73 76 80 83 85 87 90 92 95 97 100 102 102 102 102 103 103 102 102 101 99 98 94 94 94 93 94 98 105 114 117 117 116 116 117 117 118 118 119 120 122
60 64 68 71 75 78 81 84 86 88 90 91 93 94 95 96 96 97 97 98 99 99 98 97 96 94 95 96 97 99 102 107 116 122 124 123 122 123 123 122 123 123 123
59 63 66 70 73 76 78 81 83 84 86 87 88 88 89 90 91 92 93 93 93 93 94 94 95 95 96 96 98 99 102 104 107 114 123 128 130 130 130 131 131 132 133
63 66 69 70 72 74 76 77 78 78 80 81 82 82 83 84 85 86 87 87 86 87 88 89 90 91 92 94 97 99 100 102 104 106 109 117 121 127 133 136 138 140 140
68 70 71 73 74 74 73 73 73 75 76 76 77 76 75 76 76 77 77 78 79 80 82 83 84 85 87 89 91 93 95 98 101 101 103 105 107 111 114 119 125 131 137
70 72 74 74 73 71 71 70 69 68 69 70 71 71 72 72 71 70 70 70 71 72 73 75 77 80 82 84 86 87 89 91 93 96 98 99 102 103 105 107 109 112 115

GFSGL_250_spd_114.txt.gz
Wind_Speed
31 33 37 40 44 50 54 56 56 66 58 58 54 53 56 56 52 50 49 40 45 51 46 48 45 44 42 43 48 52 42 47 59 60 68 70 69 68 66 61 62 57 55
22 21 22 24 28 36 38 46 51 52 54 56 53 53 51 55 51 49 48 48 53 52 51 50 47 48 44 42 44 42 37 47 56 52 62 72 71 66 63 65 65 58 57
14 19 23 24 27 29 37 39 42 46 47 55 51 48 46 51 50 49 46 52 49 53 53 54 53 49 46 44 40 36 37 49 50 58 56 66 64 73 68 65 64 63 61
18 24 31 28 25 31 33 35 37 38 43 47 49 50 44 51 54 56 54 59 61 59 57 59 54 49 48 47 41 40 38 47 54 55 59 62 63 67 69 70 71 70 65
26 28 32 33 34 37 36 37 38 41 48 47 49 46 42 48 52 56 59 60 62 60 60 58 51 52 54 48 46 43 42 46 53 58 55 58 59 59 63 65 67 66 64
30 31 34 37 37 39 41 39 41 41 48 46 44 45 46 53 58 58 62 65 64 63 59 54 56 58 55 52 50 49 50 47 54 54 56 55 55 57 59 60 62 59 63
36 41 40 41 36 37 42 42 43 43 46 47 49 52 51 55 59 62 64 65 65 63 60 58 61 58 59 54 55 56 56 50 53 57 54 59 63 64 68 66 64 68 70
39 39 46 49 46 42 39 38 41 44 52 54 52 51 55 57 61 64 65 65 64 65 62 62 62 60 59 57 57 58 57 52 52 53 55 54 57 61 65 72 74 72 72
37 41 44 47 48 40 41 38 41 41 44 49 53 59 60 59 63 63 65 68 66 63 61 62 64 62 61 57 61 63 56 51 51 51 52 50 50 46 46 55 66 70 72
38 43 48 49 51 47 47 48 46 46 49 51 59 62 65 66 64 65 66 68 69 64 64 64 65 63 65 64 65 67 56 51 53 52 54 52 47 48 51 54 54 60 67
42 49 46 42 46 43 46 53 56 58 61 65 66 66 69 70 69 71 72 70 68 67 67 69 70 72 71 70 72 69 62 54 55 55 59 55 54 58 62 57 59 60 65
45 47 50 52 53 50 55 55 56 58 66 66 69 71 73 77 76 77 77 78 77 78 77 74 76 75 78 77 75 72 68 56 57 59 62 58 60 63 65 66 67 63 67
46 51 52 56 60 58 60 60 62 67 69 72 73 73 74 76 76 79 80 82 80 77 77 80 80 76 77 79 80 80 73 62 54 63 66 69 69 72 71 69 68 70 70
52 54 58 60 61 64 66 68 68 74 77 78 82 82 83 86 85 82 81 81 84 85 83 84 85 85 84 87 86 86 82 78 63 58 68 73 76 76 76 78 77 79 80
60 62 62 65 67 69 71 74 75 78 80 80 82 84 85 87 88 92 93 93 93 90 89 90 89 92 96 95 91 92 92 89 77 66 58 72 82 85 85 87 87 86 85
65 69 70 72 75 76 78 82 82 84 86 89 90 92 93 95 97 98 100 99 98 98 100 98 101 102 103 103 100 97 98 96 90 81 76 70 79 91 92 94 96 94 91
69 74 75 77 82 85 87 88 89 89 91 94 97 99 100 102 105 106 106 105 105 107 109 110 110 109 107 108 110 107 105 103 101 96 83 82 77 90 99 101 102 104 104
72 74 80 85 86 87 89 94 97 98 101 104 105 106 106 108 110 112 112 115 116 116 117 116 117 117 116 115 115 116 113 111 110 103 97 93 85 92 99 104 108 111 111
72 74 78 81 88 92 96 99 102 105 107 110 113 116 118 120 122 124 125 125 125 124 125 126 125 125 125 123 122 122 120 116 112 110 103 98 90 88 104 107 109 113 115
62 67 73 78 81 84 88 95 101 109 113 114 117 120 124 127 128 130 130 131 132 133 133 131 130 130 129 128 125 122 120 120 116 109 105 98 95 93 98 111 115 115 117
52 56 60 65 71 75 79 85 89 94 100 105 111 115 117 119 120 121 121 122 122 120 120 120 120 121 121 120 120 118 115 113 111 107 103 98 95 97 99 105 116 122 122
46 50 54 59 64 68 72 77 81 85 90 94 97 100 102 104 105 106 106 107 107 107 107 107 107 107 107 107 107 106 106 105 104 102 101 99 96 95 97 104 110 118 125
48 52 55 60 64 68 72 76 80 84 88 90 91 91 91 92 92 93 93 93 93 94 94 95 96 96 97 98 98 98 98 99 99 99 99 98 98 97 97 100 106 114 118
53 57 60 63 66 69 72 76 80 83 84 84 84 85 86 87 88 88 88 87 85 85 84 85 86 88 88 89 89 90 90 91 93 95 95 96 98 99 99 100 102 105 112
57 61 63 66 68 71 74 76 74 73 73 73 73 73 74 75 76 77 78 78 78 78 77 77 77 78 79 81 82 84 85 86 88 88 90 92 94 95 96 98 101 102 103
63 64 66 69 73 75 75 74 72 70 69 67 67 67 67 67 68 69 70 70 70 70 69 69 69 70 71 74 75 76 78 80 82 84 85 87 88 90 92 94 96 98 101

GFSGL_250_spd_117.txt.gz
Wind_Speed
38 39 42 45 42 40 42 45 48 46 52 61 66 62 60 69 63 60 60 57 51 50 52 44 41 43 44 43 44 47 47 47 49 54 54 53 48 58 74 77 70 73 68
21 19 22 27 30 29 28 25 29 38 48 55 52 54 64 61 57 64 60 56 53 53 49 48 44 43 45 45 49 49 49 50 52 48 45 42 44 56 64 67 77 76 69
7 7 9 16 20 20 27 34 28 31 33 44 49 48 59 55 58 62 58 55 56 49 50 49 43 49 51 53 52 51 50 53 54 43 42 39 43 50 60 63 69 75 74
3 4 10 13 22 18 20 26 29 35 41 42 49 50 60 58 63 61 58 55 53 54 53 51 48 52 56 58 59 57 56 56 55 44 35 37 43 53 56 61 68 73 75
14 15 14 16 23 26 22 22 27 33 36 42 43 48 50 53 56 53 53 57 55 57 58 59 55 58 62 61 61 59 59 58 56 48 40 35 39 54 61 61 57 71 76
21 21 20 20 20 25 29 30 31 33 36 40 38 39 44 42 48 50 50 45 49 51 55 60 63 64 64 66 64 61 60 61 62 53 50 46 43 49 63 66 65 59 64
20 23 23 24 23 22 27 31 36 36 38 39 39 45 49 51 48 47 44 46 52 56 62 69 71 71 70 68 65 64 67 64 58 54 55 51 46 50 56 66 67 66 64
24 22 26 30 28 21 27 29 28 24 28 32 36 43 48 50 50 51 52 53 56 62 67 72 73 72 73 70 66 67 64 67 59 55 56 54 49 50 53 60 63 63 60
33 26 30 37 28 31 34 34 30 25 29 33 35 44 51 55 58 59 60 61 65 66 71 74 73 73 72 70 67 67 69 60 58 58 57 55 52 51 51 60 61 60 61
35 35 39 45 43 37 44 41 39 36 37 42 41 45 52 60 61 58 61 63 70 72 74 73 68 69 71 72 70 70 64 64 61 59 59 59 57 51 51 56 58 61 61
39 41 45 48 43 47 50 50 44 47 50 52 54 50 60 58 61 63 65 66 68 70 73 74 74 73 76 76 74 72 72 70 67 66 62 65 63 51 52 54 55 56 51
43 42 46 51 50 46 53 51 54 54 51 57 57 58 63 65 68 71 72 73 74 76 82 84 83 78 75 78 78 77 76 75 72 70 70 68 68 60 50 53 55 59 53
41 50 46 49 56 59 59 58 55 57 59 59 65 66 68 69 72 76 77 77 81 82 85 87 86 84 83 82 83 84 83 79 78 76 73 71 67 70 56 49 56 64 62
47 49 50 55 56 62 63 61 63 62 65 68 69 73 74 73 76 79 81 82 82 85 87 86 87 88 90 90 89 90 90 89 85 83 78 77 75 73 66 60 55 66 69
56 56 55 59 64 63 69 68 67 70 72 75 77 77 79 83 83 84 87 88 90 89 90 93 94 94 94 96 96 95 96 97 91 89 86 86 82 79 79 73 63 59 73
63 63 64 65 66 73 71 75 75 77 79 83 84 85 86 88 89 89 91 94 97 98 100 100 99 102 104 103 104 105 102 100 101 100 95 94 91 91 86 85 84 68 63
62 67 71 73 73 75 80 81 82 86 88 91 92 93 94 96 98 98 101 103 106 108 109 110 111 111 111 110 110 110 111 111 109 109 107 103 99 98 97 95 94 89 83
67 71 75 79 83 86 86 88 91 93 93 95 98 101 104 106 108 109 110 112 114 115 115 115 116 116 117 118 118 116 117 117 116 115 111 110 108 106 107 107 105 101 98
67 70 73 76 83 87 92 94 96 96 99 104 107 109 111 113 115 118 120 122 124 125 127 128 129 129 129 128 127 127 126 126 124 122 122 119 118 119 117 115 115 113 111
63 64 66 70 74 76 82 95 102 104 107 111 113 115 118 121 124 127 129 130 131 132 134 134 135 135 135 135 134 134 132 132 131 130 129 127 126 126 129 126 122 121 119
48 49 52 57 63 69 74 79 83 90 101 112 120 121 121 124 127 131 134 138 137 137 137 136 137 135 133 131 132 134 135 136 136 136 134 135 134 133 133 131 128 128 126
42 45 47 50 53 57 62 67 74 81 87 92 98 106 113 118 123 123 120 118 115 115 115 116 117 117 117 118 119 121 124 127 128 129 131 132 133 133 131 132 132 129 127
39 42 45 49 53 57 61 66 70 76 81 85 90 96 101 102 102 102 103 104 105 106 107 107 106 106 105 105 106 107 107 109 110 112 112 113 117 120 122 124 120 118 121
41 45 49 53 57 60 64 68 72 77 81 87 91 90 90 90 91 91 92 93 92 91 91 90 90 90 91 92 94 95 96 98 99 99 100 100 100 101 103 106 109 111 109
46 51 54 57 60 63 66 70 74 78 80 79 78 77 76 76 76 77 79 80 82 82 83 83 83 82 82 81 81 81 82 84 86 89 90 91 91 93 95 96 98 100 102
51 54 58 61 64 68 71 74 76 76 75 73 71 69 68 68 67 67 68 69 71 72 73 74 74 74 74 74 74 74 74 74 75 77 80 82 84 85 87 88 91 92 94

GFSGL_250_spd_120.txt.gz
Wind_Speed
46 43 42 43 44 46 47 46 44 44 43 46 53 54 58 69 79 91 83 77 58 58 53 57 56 57 51 49 47 45 39 43 39 44 46 47 44 50 51 53 59 59 64
28 27 28 32 37 42 35 30 32 37 36 44 59 60 59 66 79 91 83 73 64 57 58 61 60 56 51 54 49 49 40 45 43 48 49 48 49 49 53 54 46 51 63
15 16 16 17 24 21 23 25 27 30 37 47 58 53 48 58 72 71 63 58 61 64 61 61 59 55 49 55 55 49 48 49 48 51 57 51 47 51 53 54 45 36 55
13 14 12 11 16 16 17 19 25 35 43 48 57 65 67 64 51 47 46 55 62 66 61 58 59 56 52 51 55 57 53 50 51 56 56 55 53 51 53 50 46 35 37
13 12 12 12 14 16 18 26 32 40 44 41 45 47 49 43 39 37 47 56 60 56 59 60 60 57 52 53 57 53 54 56 56 58 59 56 56 54 55 51 46 45 36
11 13 14 16 16 18 26 31 33 41 44 40 36 38 39 39 33 34 41 54 50 52 60 59 60 56 55 59 59 63 60 61 59 59 61 57 57 58 57 55 51 49 49
12 14 18 17 19 21 23 25 28 32 31 35 40 38 36 34 34 34 39 45 49 53 59 65 56 54 61 62 61 63 67 65 63 62 61 61 58 60 60 57 55 55 52
19 19 20 19 21 23 24 23 24 27 32 38 44 43 44 44 43 38 55 50 49 57 60 58 57 59 65 66 67 70 76 71 69 63 66 65 62 62 62 55 56 57 50
23 21 22 22 26 24 24 28 27 30 29 32 36 39 41 40 44 50 51 49 37 56 61 58 57 66 66 70 72 76 74 69 69 69 72 70 68 66 63 60 61 59 53
28 25 23 26 29 26 27 31 34 32 33 36 37 39 38 36 38 47 50 54 60 64 66 66 70 68 67 74 78 79 77 75 74 75 73 73 70 70 65 64 63 61 57
33 35 32 36 36 33 34 39 36 34 34 37 44 43 45 44 47 51 49 56 62 69 73 73 77 76 76 75 79 82 80 78 77 77 77 73 73 70 68 66 67 65 57
34 37 39 40 45 43 42 43 45 43 43 48 50 51 53 48 52 54 61 61 69 76 78 75 81 78 78 79 81 84 84 81 82 81 81 79 74 74 72 73 73 68 65
39 37 42 46 53 52 51 50 51 51 50 51 51 55 59 58 59 62 66 67 73 77 77 80 82 81 81 84 84 88 91 90 91 89 84 85 81 80 78 77 73 71 71
44 44 44 55 55 59 61 58 58 61 62 61 58 59 63 68 67 73 77 78 80 79 80 81 84 86 87 87 89 93 94 93 93 94 92 90 88 86 83 81 78 81 80
52 53 54 52 63 62 66 68 65 67 70 72 69 65 67 74 76 77 78 79 86 84 86 89 91 90 93 95 96 98 100 99 98 97 96 94 93 91 90 88 88 87 85
58 62 62 62 60 67 69 75 73 73 74 81 81 77 75 79 84 85 88 86 88 91 94 96 97 97 99 98 99 101 103 105 104 102 101 100 98 98 97 97 95 95 93
61 61 65 70 70 68 70 75 77 78 82 85 88 89 89 89 92 93 94 95 96 98 102 105 107 110 110 109 109 110 111 111 110 111 111 110 108 106 105 103 103 102 100
66 64 65 69 75 77 79 78 79 84 86 89 95 97 98 97 99 101 103 105 109 111 112 113 115 118 119 118 120 121 122 122 121 121 120 119 117 116 114 112 110 111 110
68 69 71 72 74 79 83 85 87 89 89 94 99 101 105 109 109 110 112 114 118 120 123 124 125 126 127 128 129 129 128 129 129 128 128 127 125 124 123 123 121 118 117
62 61 62 64 65 69 77 81 85 95 96 101 102 104 108 113 117 121 125 128 127 128 131 133 133 135 136 135 135 135 134 133 133 132 131 131 130 129 129 129 128 126 125
59 60 61 62 64 66 68 71 74 78 82 89 102 111 111 114 118 121 123 129 132 135 136 134 131 130 133 133 134 135 137 138 139 139 140 140 139 139 138 136 136 136 135
48 50 51 52 54 55 58 61 66 71 76 81 86 93 99 107 114 120 126 129 130 126 121 119 118 120 123 123 123 125 127 130 132 132 133 133 134 135 135 136 136 136 137
44 45 46 49 51 53 56 59 63 66 70 73 78 82 87 92 98 104 107 110 109 109 108 109 108 109 107 107 108 109 108 110 111 111 114 115 117 116 118 121 122 126 129
44 44 45 48 50 53 56 59 62 65 69 73 77 81 86 90 94 96 94 93 94 95 94 93 94 93 94 92 93 93 93 93 94 95 96 99 101 102 103 104 105 107 108
43 44 47 50 53 55 58 61 63 67 70 73 76 81 82 83 82 82 82 80 80 80 81 82 83 83 84 85 85 83 84 82 82 82 84 86 88 90 91 92 93 94 96
44 47 51 54 56 58 62 63 66 67 70 73 76 78 77 74 73 72 73 73 72 70 71 72 72 74 74 76 76 76 77 76 76 75 75 75 76 78 80 83 85 87 89

GFSGL_250_spd_123.txt.gz
Wind_Speed
41 43 45 46 47 49 52 53 56 59 60 61 64 63 64 67 62 67 62 56 51 58 66 73 74 70 58 61 61 61 57 55 53 50 46 44 47 48 46 42 40 41 41
25 25 26 29 34 37 40 42 41 41 42 46 48 56 59 63 56 76 67 54 51 65 71 75 74 69 52 61 60 59 64 54 57 52 52 49 50 50 48 43 43 43 43
13 13 16 20 24 28 29 27 30 31 33 40 42 49 55 61 68 79 70 65 58 66 77 74 71 67 64 58 64 60 64 57 62 59 55 52 50 52 47 48 49 49 45
5 9 13 16 19 24 21 23 23 26 27 31 35 42 56 58 75 80 80 68 53 50 50 53 59 63 61 60 62 67 64 58 59 64 64 60 60 55 48 48 51 56 50
9 12 12 14 16 18 18 20 20 18 21 24 30 39 46 51 72 72 66 49 44 47 53 53 56 62 58 62 64 67 67 62 65 65 66 65 63 62 57 52 51 55 51
16 12 15 16 15 17 19 17 13 14 20 25 27 37 48 58 65 66 45 35 41 46 52 56 52 51 57 70 63 68 65 70 71 69 72 70 66 64 62 57 53 56 49
15 15 16 18 21 17 20 21 23 23 23 30 34 44 55 60 66 62 51 43 41 36 49 51 63 58 63 66 65 72 67 67 72 71 72 75 74 72 68 66 57 56 56
18 17 16 16 18 20 16 18 25 27 31 33 36 42 50 52 54 52 47 45 43 48 54 56 57 57 55 63 70 76 67 69 68 71 77 77 77 71 69 63 61 59 60
21 23 23 17 21 22 22 22 25 29 33 36 43 49 56 60 51 61 58 45 46 37 56 50 54 55 54 58 68 75 72 75 80 80 80 79 78 72 69 67 67 63 61
27 25 25 23 24 27 25 26 27 26 25 35 39 46 61 52 47 55 55 50 50 50 48 45 52 56 49 50 66 73 76 80 81 83 83 82 80 76 73 73 71 69 67
31 29 29 27 29 29 29 32 34 33 34 35 39 42 48 55 57 57 58 56 58 60 62 56 55 52 60 61 66 80 81 82 86 84 83 85 83 82 81 79 77 75 71
36 38 36 36 35 36 35 36 38 37 39 40 43 46 48 52 55 60 66 70 72 71 71 65 67 60 76 84 77 87 85 82 82 84 85 86 84 86 86 82 80 79 77
41 40 36 44 45 44 45 44 44 45 47 45 47 50 51 53 60 67 68 66 65 70 71 73 75 70 78 83 80 85 90 89 89 88 88 85 89 90 90 88 85 83 81
43 43 47 45 50 52 53 53 53 52 56 54 52 53 56 56 59 67 70 70 69 74 73 78 84 81 80 83 87 90 91 93 93 93 93 94 94 95 94 93 90 88 86
57 52 52 54 53 53 57 60 63 63 62 62 63 63 63 66 68 74 77 75 74 78 81 81 87 86 87 89 94 94 95 97 96 96 98 98 98 100 101 100 98 96 92
61 61 60 59 61 61 61 61 65 71 72 72 72 72 73 72 76 79 83 85 86 88 84 88 91 94 97 99 99 100 104 103 104 105 106 107 107 108 108 106 103 100 96
67 67 65 65 65 68 68 70 70 70 74 81 82 82 84 85 85 86 89 92 96 98 101 101 101 106 107 109 109 108 112 110 112 113 117 117 116 116 115 113 112 108 106
73 72 72 70 72 75 77 75 74 77 76 81 85 92 94 95 95 96 97 100 102 103 107 108 111 113 115 117 118 120 122 122 124 124 124 125 124 124 124 123 121 121 119
71 72 72 71 71 70 73 78 83 88 84 85 86 91 94 101 104 106 108 109 110 113 114 117 119 123 123 125 126 128 129 130 129 129 128 128 130 132 134 134 134 132 130
64 67 68 68 67 66 65 65 68 76 86 91 94 94 95 97 103 107 113 116 118 120 122 121 123 126 128 131 133 134 135 136 135 136 135 133 132 131 132 132 132 131 131
54 57 60 61 61 61 62 63 64 66 67 70 74 81 91 98 107 109 107 109 114 118 123 125 126 126 125 127 129 127 129 128 128 131 132 134 133 133 132 136 137 137 137
49 49 51 52 53 55 56 57 59 60 62 65 68 71 75 80 86 92 98 106 111 113 113 116 123 125 121 120 119 118 119 121 120 119 122 126 128 130 132 133 134 135 136
48 47 47 48 49 49 50 52 54 57 60 63 64 67 70 73 77 81 86 91 96 100 103 106 108 109 106 106 104 104 102 100 99 99 101 104 106 110 114 116 118 123 124
49 48 48 49 49 50 52 54 57 59 60 62 64 67 70 74 78 83 87 93 96 99 100 98 96 97 95 94 92 92 92 90 89 88 88 89 90 93 95 98 101 102 103
50 51 50 51 52 53 56 58 60 60 62 64 67 70 74 79 84 87 90 91 92 93 92 90 88 88 88 87 87 87 87 87 87 85 84 82 81 81 81 84 87 89 90
50 51 52 52 54 56 58 59 60 63 65 69 71 75 79 83 85 86 84 82 79 78 80 81 76 75 78 77 77 77 77 78 79 79 79 79 77 76 74 75 77 77 78

GFSGL_250_spd_126.txt.gz
Wind_Speed
30 31 32 32 33 36 43 51 59 65 70 76 79 82 84 85 89 88 82 84 80 79 76 67 77 70 69 60 60 65 66 61 58 63 60 59 64 61 58 52 49 46 44
21 22 25 27 29 31 35 41 46 52 55 59 64 66 69 72 75 77 78 75 77 76 75 71 80 71 66 64 55 57 62 68 68 61 62 63 68 65 62 60 59 55 46
12 14 15 17 19 23 27 29 32 37 42 46 51 56 60 64 66 68 73 74 77 86 83 83 80 61 70 76 77 72 71 72 74 69 60 64 67 69 67 63 64 57 50
12 9 7 9 13 14 19 20 22 25 30 34 41 44 50 55 60 64 69 75 78 87 81 78 73 74 65 76 77 78 71 76 75 75 70 69 69 70 70 66 64 61 56
11 8 8 9 11 12 16 14 15 23 27 25 28 32 39 44 49 57 61 69 77 86 81 84 86 75 62 69 70 67 67 70 72 71 72 70 76 72 71 70 69 67 62
18 17 12 12 10 10 11 14 20 25 23 23 22 28 32 38 43 50 53 55 74 83 81 88 88 90 64 59 65 62 66 67 76 77 69 70 76 73 74 68 67 66 65
17 18 17 14 14 13 16 17 22 22 26 24 22 19 26 31 35 39 42 44 63 80 87 90 79 70 63 57 58 60 63 67 64 68 69 70 71 75 77 72 68 71 70
15 16 20 21 17 16 16 19 21 19 22 22 20 21 20 26 30 34 39 48 57 73 80 72 66 64 58 49 49 47 62 63 60 71 72 74 77 78 83 81 75 72 73
20 17 18 20 21 22 21 20 22 23 24 23 24 22 24 26 28 37 46 53 58 69 63 65 63 51 61 58 57 58 61 63 61 75 79 81 80 83 86 89 88 82 80
24 26 23 24 23 23 27 26 24 25 27 26 26 27 31 35 36 48 55 65 70 75 77 72 66 61 63 70 71 62 75 76 78 78 71 81 82 87 89 90 90 90 85
30 30 29 30 27 27 27 33 31 29 27 30 30 32 36 41 47 51 55 65 68 68 68 70 73 67 69 70 70 73 72 67 73 71 75 83 82 85 90 90 91 90 87
36 37 36 36 34 34 32 34 36 35 33 33 35 41 49 47 53 58 63 69 73 72 70 75 76 70 67 71 72 77 76 80 75 79 79 76 78 87 91 92 91 91 90
42 40 38 40 41 42 40 40 41 41 41 39 39 45 54 61 61 64 65 71 74 74 76 83 80 77 75 74 74 77 75 80 81 80 80 80 82 87 89 92 92 95 94
48 47 47 47 47 45 44 45 49 49 47 48 46 46 50 56 68 70 69 71 76 81 82 81 84 85 85 82 82 83 85 85 87 87 85 90 89 92 94 94 96 96 97
53 51 52 53 54 55 53 54 51 57 57 56 58 59 57 58 62 69 74 78 75 81 89 90 89 88 88 91 94 94 93 93 90 91 95 98 101 102 100 103 102 101 102
60 61 62 62 62 61 61 60 63 62 66 66 66 69 66 69 69 72 73 77 83 87 91 90 93 97 99 100 99 102 99 100 100 103 105 108 110 111 111 112 113 110 110
66 67 71 71 73 70 69 68 67 71 70 71 72 73 79 81 80 81 82 85 88 90 93 94 98 102 107 108 110 111 112 111 114 111 116 116 116 120 120 123 120 120 116
68 68 67 70 75 73 73 73 74 73 77 81 81 81 83 86 92 93 93 94 95 98 99 102 105 108 111 116 119 120 121 122 123 125 123 124 129 126 128 130 130 128 124
64 64 63 63 64 66 66 65 64 65 70 76 82 86 85 85 91 95 100 101 101 102 105 108 112 114 119 121 122 125 127 130 130 128 129 130 133 137 138 137 137 136 134
61 58 57 54 54 57 61 63 62 62 62 63 67 74 82 89 92 93 93 95 101 110 113 116 118 118 119 122 125 127 131 132 133 134 134 134 135 136 136 136 138 140 140
55 56 56 54 51 51 54 55 57 58 59 59 61 64 67 72 78 83 88 94 99 101 105 111 114 117 122 125 126 127 129 131 132 131 134 135 136 136 139 142 141 140 140
55 57 58 56 54 53 52 53 54 55 56 57 58 59 61 63 67 71 76 81 86 89 93 98 102 105 109 112 115 117 119 121 123 122 121 120 121 123 125 126 127 129 130
58 60 60 57 56 54 51 52 53 53 55 56 57 58 59 61 62 63 65 69 74 78 82 86 90 95 99 102 104 106 106 105 104 104 104 105 104 103 104 105 107 108 111
62 63 60 60 57 54 53 54 54 53 54 55 56 57 58 59 61 63 66 69 73 78 82 86 89 91 90 92 90 89 90 91 90 90 90 90 89 90 92 93 95 95 96
63 58 56 56 55 55 54 54 54 53 54 55 55 56 57 61 65 67 70 74 78 81 84 87 90 92 91 89 86 86 85 85 85 85 84 83 81 81 80 81 81 81 83
56 55 54 55 55 54 54 54 55 55 55 55 56 58 61 64 68 73 75 77 80 83 83 82 82 84 84 82 78 77 79 78 78 78 78 78 79 78 78 78 77 74 74

GFSGL_250_spd_129.txt.gz
Wind_Speed
30 31 32 30 28 31 35 39 41 46 55 66 71 76 85 94 100 100 101 102 105 106 106 96 89 93 87 79 75 70 67 73 69 69 77 71 64 61 56 54 47 48 57
23 23 25 24 23 25 28 31 35 40 46 54 64 70 76 85 92 94 97 100 105 108 106 102 89 95 88 88 82 80 79 69 78 72 75 73 68 64 62 64 51 51 52
18 16 12 13 16 18 21 26 30 33 37 44 53 63 71 77 81 85 91 95 99 104 105 103 94 97 96 95 85 79 77 78 68 67 73 77 78 77 73 67 65 55 55
18 14 11 8 8 11 14 13 17 23 31 37 43 49 58 66 73 78 82 86 90 93 96 99 96 101 99 95 96 96 85 86 76 76 73 78 78 72 68 65 69 71 65
16 14 8 6 8 8 8 7 9 17 21 26 28 35 44 53 60 63 67 74 80 83 88 93 95 99 97 98 95 93 89 86 84 82 77 65 64 73 66 68 69 73 69
16 13 12 13 8 9 8 9 9 10 13 17 20 20 27 34 40 47 53 55 62 69 75 81 86 91 99 92 101 89 88 90 95 79 85 70 74 71 66 71 75 76 74
21 16 17 12 11 11 9 12 12 13 15 20 26 26 26 27 28 34 43 48 49 54 60 68 76 84 87 90 96 87 89 89 99 96 92 91 78 74 79 74 78 80 78
22 24 20 17 18 17 13 15 19 20 19 19 23 23 25 24 25 26 32 37 42 44 50 56 60 74 85 85 88 90 95 92 92 91 93 92 85 80 79 79 80 79 83
19 19 27 22 22 24 22 22 23 22 22 25 26 27 27 27 26 24 23 26 35 40 43 48 56 64 76 83 89 93 98 86 87 79 81 85 82 73 81 83 74 70 76
24 20 19 22 25 28 31 27 28 26 25 24 28 28 29 29 30 29 25 27 30 35 40 47 54 64 76 87 90 97 97 93 76 81 79 81 79 77 78 78 80 81 78
29 28 26 26 27 29 30 26 27 32 32 29 29 30 28 29 30 32 29 30 31 34 37 43 55 64 74 88 94 97 95 93 86 86 84 84 81 87 83 86 85 81 86
37 35 34 33 33 33 32 33 32 31 35 38 37 36 33 34 34 36 34 36 38 38 39 46 51 56 68 83 93 98 93 101 100 93 87 85 83 90 86 90 90 88 88
43 43 44 44 42 42 43 40 39 38 37 37 43 42 40 40 41 47 45 44 45 46 47 49 52 59 68 76 82 88 91 90 91 90 87 87 91 88 93 91 97 99 94
47 48 51 51 51 52 51 52 48 46 44 46 47 47 50 48 47 52 58 57 56 59 58 56 59 64 69 81 83 85 89 89 92 94 96 94 93 96 97 99 102 107 111
52 54 54 54 58 58 58 58 59 59 58 56 55 56 56 58 57 59 65 67 67 69 71 69 69 72 77 86 92 93 91 96 99 100 102 104 104 104 103 103 102 107 110
60 60 59 58 58 58 60 62 62 65 65 65 65 65 63 65 66 69 69 71 78 78 81 83 85 85 86 92 94 97 103 104 105 108 108 110 113 114 113 112 111 113 116
64 65 65 65 66 67 69 71 73 72 72 73 74 70 76 78 76 77 77 80 78 87 89 88 90 98 98 99 103 106 106 108 109 112 117 119 121 120 118 121 122 122 121
64 65 66 68 67 67 65 64 64 64 65 66 67 68 71 77 79 80 82 84 87 86 88 98 97 98 104 111 113 115 115 117 119 121 123 125 125 129 131 130 129 127 125
65 65 66 65 61 59 59 59 57 56 58 61 62 63 66 68 73 79 84 84 86 91 94 93 98 104 108 111 113 118 122 124 128 130 132 133 134 135 133 134 132 132 131
64 62 60 61 61 59 56 56 56 58 58 60 63 64 63 63 67 71 76 80 84 84 87 94 99 101 102 105 108 116 124 128 129 129 131 135 135 136 137 137 138 139 140
61 59 59 59 55 54 55 55 55 55 55 55 57 60 61 61 60 61 66 72 78 83 87 89 92 97 100 104 110 115 116 116 116 118 121 123 127 134 137 139 138 135 135
60 61 60 57 55 54 56 57 56 55 55 55 54 55 57 57 58 59 60 62 65 70 76 84 90 94 95 97 101 105 109 114 118 121 121 122 124 126 127 127 127 126 126
60 60 58 56 56 56 57 57 56 55 55 54 54 55 57 58 58 59 60 62 63 66 69 72 76 81 86 91 95 99 101 104 107 110 111 111 111 111 111 110 111 112 112
58 57 57 57 58 57 57 56 57 57 56 55 55 55 56 57 58 58 60 62 64 67 69 72 75 79 83 86 89 92 96 99 101 101 100 100 99 98 99 99 99 100 100
57 57 58 58 57 58 58 58 57 56 56 55 56 56 55 57 59 59 60 63 65 68 70 72 74 77 80 81 80 80 80 80 84 86 86 87 89 89 89 89 90 90 91
57 59 57 57 58 58 58 58 57 56 56 57 56 56 56 58 59 60 62 64 66 68 70 73 75 77 77 79 79 78 78 76 77 79 80 81 81 81 81 81 82 81 81

GFSGL_250_spd_132.txt.gz
Wind_Speed
32 34 34 31 31 33 34 36 37 39 37 37 44 53 60 67 74 84 103 110 112 111 111 106 104 104 103 90 85 80 83 82 71 73 65 63 60 62 67 61 60 54 47
29 27 27 26 24 22 25 28 31 31 30 32 37 45 53 60 66 75 92 106 110 112 113 111 108 112 112 109 103 95 93 89 83 78 76 65 60 60 66 70 66 64 60
23 20 19 18 11 12 14 17 20 23 24 27 31 37 46 51 61 70 80 94 106 109 112 117 113 114 113 114 113 109 102 98 95 89 74 72 64 69 69 66 68 69 67
20 18 22 10 10 10 7 9 9 13 16 22 24 28 34 43 53 63 70 80 91 101 107 112 117 117 115 116 114 113 112 104 103 100 90 85 82 75 83 80 75 71 67
21 21 20 13 10 11 8 8 6 9 11 10 12 16 22 30 42 55 64 71 79 87 94 102 108 112 117 119 117 114 112 110 109 106 98 97 93 89 83 80 80 77 75
21 21 18 9 10 11 8 7 4 6 6 7 11 11 11 19 26 38 51 61 72 78 81 87 97 105 113 113 114 115 116 113 112 111 104 101 99 94 90 85 83 81 82
22 19 13 12 10 10 8 8 7 6 8 9 11 15 15 16 22 27 31 42 53 63 69 74 82 90 98 104 108 110 112 112 112 112 110 105 104 100 95 92 86 89 91
20 19 16 16 12 14 13 14 14 13 12 16 16 18 19 19 20 23 22 26 32 44 51 56 62 71 82 90 96 100 102 104 105 105 109 109 106 102 98 97 91 90 86
27 22 19 18 19 19 20 22 18 20 21 23 22 22 25 27 27 30 31 30 26 31 40 47 51 57 65 73 80 87 93 96 98 101 103 104 104 102 94 94 80 95 91
29 23 26 28 22 25 23 25 28 26 26 27 28 29 29 27 29 31 33 35 34 31 30 36 44 48 56 63 73 79 85 88 90 96 99 106 109 107 93 95 98 102 97
32 32 28 26 27 31 29 29 29 32 31 30 32 33 34 33 33 32 33 37 37 37 35 35 39 43 50 57 64 67 72 78 84 87 97 105 110 103 98 95 100 99 101
35 37 37 34 33 35 37 37 39 38 41 36 36 36 39 39 39 38 37 37 41 39 40 36 35 40 40 46 51 56 62 68 75 85 92 95 97 100 103 102 101 93 106
39 41 43 43 43 43 44 44 43 44 44 42 41 42 42 41 48 47 45 43 44 47 46 44 41 42 44 41 42 47 52 61 71 80 87 92 94 98 100 105 105 102 104
43 47 47 50 50 51 53 53 53 53 52 52 52 52 51 52 52 51 54 53 51 53 55 55 52 54 52 52 50 51 53 61 68 78 86 92 98 99 104 103 106 108 107
50 50 51 54 56 57 58 59 59 60 61 63 64 65 65 66 64 63 61 60 61 61 62 66 65 63 64 63 63 59 60 66 68 76 88 94 99 100 105 109 108 108 108
58 62 62 64 64 64 63 62 62 62 63 64 67 68 71 74 75 76 76 74 71 70 71 71 76 76 73 74 74 74 73 73 75 80 87 92 98 102 107 113 120 118 116
60 60 63 65 66 64 64 66 67 66 68 68 68 68 68 69 71 73 76 79 79 79 79 78 78 81 83 83 83 85 86 85 86 87 94 98 102 107 110 117 122 123 128
64 64 66 64 63 66 69 69 67 66 62 60 60 60 62 63 65 68 69 71 76 82 84 84 84 85 84 84 88 89 93 97 96 97 101 106 110 114 118 121 119 129 127
64 65 67 66 65 62 63 63 60 57 57 59 60 59 60 61 64 66 67 68 68 70 76 85 87 85 85 85 87 87 92 98 105 106 108 113 115 120 124 128 130 131 134
66 67 67 67 66 63 61 60 56 56 57 60 60 61 62 63 64 62 64 67 68 67 67 71 78 81 81 84 87 88 90 94 98 105 113 120 121 125 128 130 133 136 135
65 67 66 64 65 63 63 62 59 58 58 59 61 63 64 64 62 61 61 61 64 66 66 66 68 72 77 81 85 87 91 95 97 100 101 108 114 122 133 136 138 137 135
64 65 65 65 63 63 61 60 60 60 60 61 62 62 62 61 59 58 58 59 60 61 63 65 66 68 71 74 78 82 85 88 93 98 101 104 107 110 115 119 127 136 140
64 66 65 64 62 61 61 60 60 61 62 62 62 63 62 60 58 58 58 59 59 60 61 63 65 68 69 72 75 78 82 85 88 90 93 97 101 104 108 112 114 117 120
66 66 64 62 62 60 60 61 61 61 61 62 62 60 59 59 59 59 60 60 61 62 63 65 67 69 71 73 74 76 79 83 86 88 90 92 93 94 95 96 98 101 104
65 63 61 61 62 62 61 61 60 61 61 61 60 60 59 60 61 61 61 62 62 62 64 66 68 71 72 73 73 74 75 76 78 79 82 85 87 89 89 89 89 90 91
58 59 61 61 61 61 60 59 60 61 60 59 59 60 61 61 62 62 62 62 63 65 65 66 67 69 70 72 72 73 73 74 74 74 76 78 79 80 83 84 86 87 87

GFSGL_250_spd_135.txt.gz
Wind_Speed
34 35 36 33 34 33 32 33 34 33 31 33 34 34 36 41 47 52 61 74 85 113 122 120 109 108 99 88 87 84 81 76 70 70 65 61 74 71 66 64 56 60 55
30 29 27 28 27 24 23 22 23 23 26 29 29 29 31 33 38 43 53 66 78 103 119 123 112 110 103 98 89 90 85 81 82 76 84 83 75 78 70 63 63 63 66
28 24 23 22 21 17 14 12 16 16 20 21 21 22 23 25 28 34 45 57 74 87 113 124 116 114 109 104 96 90 88 88 84 89 86 87 82 78 78 70 65 63 60
24 21 18 18 20 16 11 9 13 15 14 12 14 13 15 17 20 23 36 50 64 78 97 118 123 118 115 112 107 104 96 98 96 94 98 80 83 87 88 78 79 73 63
21 19 20 19 18 17 14 11 12 7 6 3 2 3 5 8 12 15 24 37 52 70 85 106 117 121 120 119 115 113 110 110 106 104 104 99 96 96 91 86 84 86 84
22 22 23 22 21 14 14 10 7 3 5 8 6 5 2 4 6 7 12 24 41 58 74 89 108 117 123 124 123 124 120 117 116 117 114 107 103 101 100 100 100 100 94
24 23 22 24 19 14 13 11 11 8 5 7 8 11 11 9 9 11 11 18 27 43 61 75 89 107 117 122 123 124 127 128 125 123 126 122 120 118 118 115 114 108 105
25 23 23 26 19 16 13 12 11 11 11 10 10 11 12 12 13 12 18 19 20 33 49 62 72 82 99 121 126 128 128 129 131 132 127 130 132 128 128 126 125 121 116
27 25 22 19 17 18 17 17 17 20 20 18 20 19 18 17 19 19 20 21 23 29 33 44 56 70 81 94 106 120 126 129 129 132 133 133 133 133 131 130 130 126 125
30 29 28 21 20 20 22 23 23 25 25 27 25 25 26 26 26 27 27 27 27 30 34 36 39 46 61 70 75 84 97 109 120 129 132 134 135 136 136 135 133 130 129
30 35 34 32 30 29 28 28 29 30 30 31 31 30 30 31 33 33 34 35 35 34 35 38 39 43 45 51 58 67 75 84 91 98 105 111 118 123 127 132 132 132 130
32 33 35 34 37 39 39 38 34 37 37 37 38 38 38 38 37 39 41 41 42 43 44 44 43 45 45 45 50 56 61 68 75 83 90 97 101 105 110 115 120 124 124
37 38 41 42 40 41 43 43 42 44 45 46 46 46 46 44 46 47 48 50 51 53 54 54 54 53 52 52 52 52 55 59 65 73 78 82 85 87 90 96 100 107 112
41 42 44 46 47 49 52 53 54 52 53 54 54 55 55 55 57 58 58 60 61 61 60 62 63 63 62 61 61 60 59 59 61 64 69 75 78 80 81 84 89 93 100
47 46 48 50 52 56 56 58 58 60 61 62 63 64 65 66 67 69 72 75 77 77 75 74 72 72 72 71 70 69 69 68 68 67 67 69 71 72 76 78 82 86 92
54 55 56 57 58 60 62 64 64 63 64 66 68 69 71 71 72 73 75 78 79 82 83 82 80 79 78 78 78 78 79 79 76 76 75 73 73 73 74 75 79 83 85
57 58 61 62 65 66 67 68 68 66 67 67 67 67 69 70 71 72 74 75 77 77 78 79 78 78 80 83 84 83 85 86 86 84 83 82 81 80 79 79 81 84 88
61 61 62 64 66 66 67 68 70 66 65 65 64 65 65 67 69 70 72 73 73 73 74 73 72 72 73 76 80 82 84 87 89 88 89 89 89 89 88 88 87 88 92
63 63 65 66 67 67 68 68 68 67 65 61 58 59 62 63 64 67 69 71 71 71 71 68 68 71 72 73 72 76 79 82 86 89 91 92 95 95 96 97 97 97 98
63 66 66 67 69 68 69 69 68 67 61 58 60 63 62 62 64 66 67 68 69 68 67 67 68 69 69 69 68 69 72 78 80 82 85 91 96 96 98 101 102 103 104
64 65 67 69 70 69 70 69 67 63 60 61 63 63 64 64 65 66 67 67 67 65 64 64 66 67 69 70 71 69 69 71 75 80 82 83 87 92 98 101 104 104 105
60 63 65 67 69 68 67 67 64 60 63 62 64 65 65 64 65 67 67 66 63 63 64 64 64 64 64 66 67 69 71 72 74 75 78 81 83 85 88 92 99 103 104
59 62 64 66 67 68 66 64 65 65 64 66 65 64 65 66 67 66 65 63 63 62 61 61 62 63 63 64 66 68 71 73 75 76 77 79 80 82 83 84 86 89 94
58 61 63 66 66 66 66 67 66 66 65 65 66 65 65 65 65 64 63 63 62 62 61 62 63 64 65 64 65 65 68 70 73 74 75 77 79 80 80 81 82 83 85
59 61 62 63 64 65 66 66 66 65 65 64 64 64 64 64 63 63 64 64 63 63 63 63 63 64 65 65 65 66 67 67 68 69 70 72 74 75 76 77 78 79 80
58 60 61 62 63 64 64 64 64 63 63 63 64 63 62 62 63 64 63 63 63 63 63 63 63 62 63 64 65 65 66 66 66 67 68 69 70 71 72 73 74 75 77